IT9CNT Weather Reports


time (UTC)temp
F
wind
direction
speed
knots
gust
knots
rain 1hr
in
rain 24hr
in
rain mn
in
humidity
%
barometer
mb
20260906105703 90 238 2.6 9.6 0.00 0.00 0.00 54 1017.2
20260906105603 92 241 1.7 3.5 0.00 0.00 0.00 54 1017.0
20260906105503 91 233 1.7 3.5 0.00 0.00 0.00 53 1017.0
20260906105403 91 227 1.7 3.5 0.00 0.00 0.00 52 1017.1
20260906105306 91 223 1.7 3.5 0.00 0.00 0.00 52 1016.9
20260906105203 91 221 1.7 3.5 0.00 0.00 0.00 52 1017.1
20260906105103 92 221 0.9 3.5 0.00 0.00 0.00 52 1017.1
20260906105003 92 220 0.9 3.5 0.00 0.00 0.00 52 1017.2
20260906104903 92 218 0.9 1.7 0.00 0.00 0.00 52 1017.2
20260906104803 92 214 0.9 1.7 0.00 0.00 0.00 53 1017.2
20260906104703 91 212 0.9 1.7 0.00 0.00 0.00 52 1017.0
20260906104603 90 212 0.9 1.7 0.00 0.00 0.00 52 1017.3
20260906104503 91 214 0.9 1.7 0.00 0.00 0.00 52 1017.3
20260906104403 91 230 0.9 1.7 0.00 0.00 0.00 52 1017.1
20260906104303 91 236 0.9 1.7 0.00 0.00 0.00 51 1017.1
20260906104203 91 236 0.9 1.7 0.00 0.00 0.00 52 1017.4
20260906104103 91 238 0.9 1.7 0.00 0.00 0.00 52 1017.3
20260906104003 91 242 0.9 1.7 0.00 0.00 0.00 52 1017.3
20260906103903 91 251 0.0 1.7 0.00 0.00 0.00 52 1017.2
20260906103803 92 277 0.0 1.7 0.00 0.00 0.00 52 1017.0
20260906103703 92 268 0.9 1.7 0.00 0.00 0.00 52 1017.3
20260906103603 91 258 0.9 1.7 0.00 0.00 0.00 53 1017.0
20260906103503 91 255 0.9 3.5 0.00 0.00 0.00 53 1017.3
20260906103403 91 251 0.9 3.5 0.00 0.00 0.00 53 1017.2
20260906103303 92 249 0.9 3.5 0.00 0.00 0.00 53 1017.0
20260906103203 92 253 0.9 3.5 0.00 0.00 0.00 53 1017.1
20260906103103 91 252 0.9 3.5 0.00 0.00 0.00 54 1017.5
20260906103003 91 253 1.7 3.5 0.00 0.00 0.00 54 1017.4
20260906102903 90 256 1.7 3.5 0.00 0.00 0.00 54 1017.4
20260906102804 90 254 1.7 3.5 0.00 0.00 0.00 52 1017.4
20260906102704 90 255 1.7 3.5 0.00 0.00 0.00 53 1017.4
20260906102603 90 257 1.7 3.5 0.00 0.00 0.00 52 1017.4
20260906102503 91 253 1.7 3.5 0.00 0.00 0.00 53 1017.2
20260906102403 91 252 0.9 3.5 0.00 0.00 0.00 53 1017.3
20260906102306 91 252 0.9 3.5 0.00 0.00 0.00 54 1017.4
20260906102203 90 248 0.9 3.5 0.00 0.00 0.00 54 1017.4
20260906102104 90 248 0.9 3.5 0.00 0.00 0.00 56 1017.3
20260906102003 90 244 0.9 3.5 0.00 0.00 0.00 55 1017.3
20260906101903 90 212 0.0 1.7 0.00 0.00 0.00 56 1017.6
20260906101803 90 212 0.0 1.7 0.00 0.00 0.00 56 1017.2
20260906101703 90 212 0.0 1.7 0.00 0.00 0.00 56 1017.3
20260906101603 90 200 0.0 1.7 0.00 0.00 0.00 55 1017.4
20260906101503 92 225 0.0 1.7 0.00 0.00 0.00 52 1017.4
20260906101403 91 0 0.0 0.0 0.00 0.00 0.00 49 1017.5
20260906101303 91 0 0.0 0.0 0.00 0.00 0.00 49 1017.5
20260906101203 91 0 0.0 0.0 0.00 0.00 0.00 49 1017.3
20260906101103 92 0 0.0 0.0 0.00 0.00 0.00 47 1017.4
20260906101003 92 0 0.0 0.0 0.00 0.00 0.00 47 1017.5
20260906100903 91 0 0.0 0.0 0.00 0.00 0.00 48 1017.6
20260906100803 90 0 0.0 0.0 0.00 0.00 0.00 48 1017.2
20260906100703 90 0 0.0 0.0 0.00 0.00 0.00 48 1017.5
20260906100603 90 0 0.0 0.0 0.00 0.00 0.00 48 1017.4
20260906100503 90 0 0.0 0.0 0.00 0.00 0.00 47 1017.4
20260906100403 90 0 0.0 0.0 0.00 0.00 0.00 47 1017.6
20260906100303 91 0 0.0 0.0 0.00 0.00 0.00 47 1017.6
20260906100203 91 0 0.0 0.0 0.00 0.00 0.00 48 1017.5
20260906100103 90 202 0.0 1.7 0.00 0.00 0.00 48 1017.7
20260906100004 90 202 0.0 1.7 0.00 0.00 0.00 48 1017.7
20260906095903 90 202 0.0 1.7 0.00 0.00 0.00 47 1017.6
20260906095803 90 202 0.0 1.7 0.00 0.00 0.00 47 1017.6
20260906095703 90 202 0.0 1.7 0.00 0.00 0.00 46 1017.6
20260906095603 90 202 0.0 1.7 0.00 0.00 0.00 46 1017.8
20260906095503 90 202 0.0 1.7 0.00 0.00 0.00 47 1017.6
20260906095403 90 202 0.0 1.7 0.00 0.00 0.00 47 1017.4
20260906095306 90 202 0.0 1.7 0.00 0.00 0.00 47 1017.7
20260906095203 90 202 0.0 1.7 0.00 0.00 0.00 48 1017.9
20260906095103 91 0 0.0 0.0 0.00 0.00 0.00 48 1017.6
20260906095003 90 0 0.0 0.0 0.00 0.00 0.00 47 1017.6
20260906094903 90 0 0.0 0.0 0.00 0.00 0.00 47 1017.6
20260906094803 91 0 0.0 0.0 0.00 0.00 0.00 47 1017.7
20260906094703 90 0 0.0 0.0 0.00 0.00 0.00 47 1017.6
20260906094604 91 0 0.0 0.0 0.00 0.00 0.00 47 1017.7
20260906094504 91 0 0.0 0.0 0.00 0.00 0.00 47 1017.6
20260906094403 90 0 0.0 0.0 0.00 0.00 0.00 47 1017.6
20260906094303 90 0 0.0 0.0 0.00 0.00 0.00 47 1017.6
20260906094203 90 0 0.0 0.0 0.00 0.00 0.00 47 1017.5
20260906094103 91 0 0.0 0.0 0.00 0.00 0.00 46 1017.6
20260906094003 91 0 0.0 0.0 0.00 0.00 0.00 47 1017.6
20260906093903 91 0 0.0 0.0 0.00 0.00 0.00 47 1017.8
20260906093803 91 0 0.0 0.0 0.00 0.00 0.00 46 1017.7
20260906093703 91 0 0.0 0.0 0.00 0.00 0.00 46 1017.5
20260906093603 92 0 0.0 0.0 0.00 0.00 0.00 46 1017.5
20260906093503 91 0 0.0 0.0 0.00 0.00 0.00 47 1017.5
20260906093403 90 0 0.0 0.0 0.00 0.00 0.00 47 1017.7
20260906093303 90 0 0.0 0.0 0.00 0.00 0.00 47 1017.4
20260906093203 90 0 0.0 0.0 0.00 0.00 0.00 47 1017.6
20260906093103 90 0 0.0 0.0 0.00 0.00 0.00 47 1017.7
20260906093003 89 0 0.0 0.0 0.00 0.00 0.00 47 1017.7
20260906092903 89 0 0.0 0.0 0.00 0.00 0.00 48 1017.5
20260906092803 89 0 0.0 0.0 0.00 0.00 0.00 48 1017.7
20260906092703 90 0 0.0 0.0 0.00 0.00 0.00 48 1017.6
20260906092603 90 0 0.0 0.0 0.00 0.00 0.00 48 1017.7
20260906092503 89 0 0.0 0.0 0.00 0.00 0.00 49 1017.6
20260906092403 89 0 0.0 0.0 0.00 0.00 0.00 49 1017.6
20260906092306 89 247 0.0 1.7 0.00 0.00 0.00 49 1017.6
20260906092203 89 238 0.0 1.7 0.00 0.00 0.00 49 1017.7
20260906092103 89 236 0.0 1.7 0.00 0.00 0.00 48 1017.7
20260906092003 89 236 0.0 1.7 0.00 0.00 0.00 49 1017.5
20260906091903 90 236 0.0 1.7 0.00 0.00 0.00 49 1017.7
20260906091803 90 236 0.0 1.7 0.00 0.00 0.00 49 1017.6
20260906091703 89 236 0.0 1.7 0.00 0.00 0.00 49 1017.9
20260906091603 89 236 0.0 1.7 0.00 0.00 0.00 49 1017.8
20260906091503 89 236 0.0 1.7 0.00 0.00 0.00 50 1017.6
20260906091403 89 236 0.0 1.7 0.00 0.00 0.00 49 1017.8
20260906091303 89 234 0.0 1.7 0.00 0.00 0.00 50 1017.8
20260906091203 89 225 0.0 1.7 0.00 0.00 0.00 49 1017.6
20260906091103 90 0 0.0 0.0 0.00 0.00 0.00 49 1017.7
20260906091003 90 0 0.0 0.0 0.00 0.00 0.00 49 1017.9
20260906090903 90 0 0.0 0.0 0.00 0.00 0.00 49 1017.6
20260906090803 89 0 0.0 0.0 0.00 0.00 0.00 49 1017.8
20260906090703 89 0 0.0 0.0 0.00 0.00 0.00 49 1017.7
20260906090603 89 0 0.0 0.0 0.00 0.00 0.00 49 1017.8
20260906090503 89 0 0.0 0.0 0.00 0.00 0.00 49 1017.8
20260906090403 89 225 0.0 1.7 0.00 0.00 0.00 49 1017.6
20260906090303 89 225 0.0 1.7 0.00 0.00 0.00 49 1017.7
20260906090203 89 225 0.0 1.7 0.00 0.00 0.00 49 1017.9
20260906090103 90 225 0.0 1.7 0.00 0.00 0.00 49 1017.6
20260906090004 89 225 0.0 1.7 0.00 0.00 0.00 49 1017.6
20260906085903 89 225 0.0 1.7 0.00 0.00 0.00 49 1017.5
20260906085803 88 225 0.0 1.7 0.00 0.00 0.00 50 1017.7
20260906085703 88 225 0.0 1.7 0.00 0.00 0.00 50 1017.6
20260906085603 88 225 0.0 1.7 0.00 0.00 0.00 49 1017.8
20260906085503 88 225 0.0 1.7 0.00 0.00 0.00 49 1017.7
20260906085403 89 0 0.0 0.0 0.00 0.00 0.00 51 1017.6
20260906085306 89 0 0.0 0.0 0.00 0.00 0.00 51 1017.8
20260906085203 88 0 0.0 0.0 0.00 0.00 0.00 51 1017.8
20260906085103 89 0 0.0 0.0 0.00 0.00 0.00 51 1017.8
20260906085003 88 0 0.0 0.0 0.00 0.00 0.00 50 1017.7
20260906084903 88 0 0.0 0.0 0.00 0.00 0.00 49 1017.7
20260906084804 88 0 0.0 0.0 0.00 0.00 0.00 49 1017.9
20260906084703 88 0 0.0 0.0 0.00 0.00 0.00 49 1017.9
20260906084603 88 0 0.0 0.0 0.00 0.00 0.00 49 1017.6
20260906084503 88 0 0.0 0.0 0.00 0.00 0.00 49 1017.5
20260906084403 89 0 0.0 0.0 0.00 0.00 0.00 48 1017.6
20260906084303 89 0 0.0 0.0 0.00 0.00 0.00 48 1017.9
20260906084203 88 0 0.0 0.0 0.00 0.00 0.00 49 1017.7
20260906084103 88 0 0.0 0.0 0.00 0.00 0.00 49 1017.9
20260906084003 87 0 0.0 0.0 0.00 0.00 0.00 49 1017.7
20260906083903 88 0 0.0 0.0 0.00 0.00 0.00 50 1017.6
20260906083803 88 0 0.0 0.0 0.00 0.00 0.00 50 1017.8
20260906083703 88 0 0.0 0.0 0.00 0.00 0.00 50 1017.7
20260906083603 88 0 0.0 0.0 0.00 0.00 0.00 50 1017.8
20260906083503 88 0 0.0 0.0 0.00 0.00 0.00 50 1017.7
20260906083403 88 0 0.0 0.0 0.00 0.00 0.00 50 1017.5
20260906083303 88 0 0.0 0.0 0.00 0.00 0.00 51 1017.7
20260906083203 88 0 0.0 0.0 0.00 0.00 0.00 51 1017.7
20260906083103 88 0 0.0 0.0 0.00 0.00 0.00 52 1017.6
20260906083003 88 0 0.0 0.0 0.00 0.00 0.00 51 1017.7
20260906082903 88 0 0.0 0.0 0.00 0.00 0.00 51 1017.6
20260906082803 88 0 0.0 0.0 0.00 0.00 0.00 51 1017.6
20260906082703 87 0 0.0 0.0 0.00 0.00 0.00 51 1017.7
20260906082603 87 0 0.0 0.0 0.00 0.00 0.00 51 1017.5
20260906082503 87 0 0.0 0.0 0.00 0.00 0.00 51 1017.6
20260906082403 87 0 0.0 0.0 0.00 0.00 0.00 52 1017.6
20260906082306 87 0 0.0 0.0 0.00 0.00 0.00 52 1017.5
20260906082203 87 0 0.0 0.0 0.00 0.00 0.00 52 1017.7
20260906082103 87 0 0.0 0.0 0.00 0.00 0.00 52 1017.7
20260906082003 87 0 0.0 0.0 0.00 0.00 0.00 53 1017.6
20260906081903 88 0 0.0 0.0 0.00 0.00 0.00 52 1017.5
20260906081803 88 0 0.0 0.0 0.00 0.00 0.00 53 1017.3
20260906081703 88 0 0.0 0.0 0.00 0.00 0.00 53 1017.6
20260906081603 87 0 0.0 0.0 0.00 0.00 0.00 53 1017.5
20260906081503 87 0 0.0 0.0 0.00 0.00 0.00 54 1017.6
20260906081403 87 0 0.0 0.0 0.00 0.00 0.00 55 1017.6
20260906081303 87 0 0.0 0.0 0.00 0.00 0.00 55 1017.4
20260906081204 86 0 0.0 0.0 0.00 0.00 0.00 55 1017.6
20260906081103 87 0 0.0 0.0 0.00 0.00 0.00 55 1017.6
20260906081003 87 0 0.0 0.0 0.00 0.00 0.00 55 1017.4
20260906080903 87 0 0.0 0.0 0.00 0.00 0.00 55 1017.6
20260906080803 87 0 0.0 0.0 0.00 0.00 0.00 55 1017.7
20260906080703 87 0 0.0 0.0 0.00 0.00 0.00 56 1017.7
20260906080603 86 0 0.0 0.0 0.00 0.00 0.00 56 1017.3
20260906080503 87 0 0.0 0.0 0.00 0.00 0.00 55 1017.6
20260906080403 87 0 0.0 0.0 0.00 0.00 0.00 55 1017.5
20260906080303 87 0 0.0 0.0 0.00 0.00 0.00 55 1017.4
20260906080203 86 0 0.0 0.0 0.00 0.00 0.00 55 1017.5
20260906080103 86 0 0.0 0.0 0.00 0.00 0.00 55 1017.4
20260906080004 86 0 0.0 0.0 0.00 0.00 0.00 55 1017.5
20260906075903 86 0 0.0 0.0 0.00 0.00 0.00 55 1017.3
20260906075803 87 0 0.0 0.0 0.00 0.00 0.00 55 1017.3
20260906075703 87 0 0.0 0.0 0.00 0.00 0.00 55 1017.4
20260906075603 87 0 0.0 0.0 0.00 0.00 0.00 55 1017.3
20260906075503 87 0 0.0 0.0 0.00 0.00 0.00 55 1017.4
20260906075403 87 0 0.0 0.0 0.00 0.00 0.00 54 1017.2
20260906075306 87 0 0.0 0.0 0.00 0.00 0.00 55 1017.5
20260906075203 87 0 0.0 0.0 0.00 0.00 0.00 54 1017.4
20260906075103 88 0 0.0 0.0 0.00 0.00 0.00 54 1017.3
20260906075003 87 0 0.0 0.0 0.00 0.00 0.00 55 1017.4
20260906074903 87 0 0.0 0.0 0.00 0.00 0.00 55 1017.5
20260906074803 86 0 0.0 0.0 0.00 0.00 0.00 55 1017.4
20260906074703 86 0 0.0 0.0 0.00 0.00 0.00 55 1017.6
20260906074603 86 0 0.0 0.0 0.00 0.00 0.00 55 1017.4
20260906074503 87 0 0.0 0.0 0.00 0.00 0.00 55 1017.5
20260906074403 87 0 0.0 0.0 0.00 0.00 0.00 55 1017.4
20260906074303 86 0 0.0 0.0 0.00 0.00 0.00 55 1017.5
20260906074203 85 0 0.0 0.0 0.00 0.00 0.00 56 1017.3
20260906074103 85 0 0.0 0.0 0.00 0.00 0.00 56 1017.4
20260906074003 85 0 0.0 0.0 0.00 0.00 0.00 56 1017.5
20260906073903 85 0 0.0 0.0 0.00 0.00 0.00 56 1017.2
20260906073803 86 0 0.0 0.0 0.00 0.00 0.00 56 1017.5
20260906073703 86 0 0.0 0.0 0.00 0.00 0.00 56 1017.2
20260906073603 86 0 0.0 0.0 0.00 0.00 0.00 56 1017.4
20260906073504 86 0 0.0 0.0 0.00 0.00 0.00 56 1017.0
20260906073403 86 0 0.0 0.0 0.00 0.00 0.00 55 1017.5
20260906073303 86 0 0.0 0.0 0.00 0.00 0.00 55 1017.2
20260906073203 86 0 0.0 0.0 0.00 0.00 0.00 55 1017.1
20260906073103 86 0 0.0 0.0 0.00 0.00 0.00 56 1017.4
20260906073003 86 0 0.0 0.0 0.00 0.00 0.00 56 1017.2
20260906072903 86 0 0.0 0.0 0.00 0.00 0.00 57 1017.4
20260906072803 85 0 0.0 0.0 0.00 0.00 0.00 56 1017.4
20260906072703 85 0 0.0 0.0 0.00 0.00 0.00 56 1017.4
20260906072603 85 0 0.0 0.0 0.00 0.00 0.00 56 1017.3
20260906072503 85 0 0.0 0.0 0.00 0.00 0.00 56 1017.2
20260906072403 85 0 0.0 0.0 0.00 0.00 0.00 56 1017.2
20260906072306 85 0 0.0 0.0 0.00 0.00 0.00 57 1017.0
20260906072203 85 0 0.0 0.0 0.00 0.00 0.00 57 1017.2
20260906072103 85 0 0.0 0.0 0.00 0.00 0.00 57 1017.1
20260906072003 85 0 0.0 0.0 0.00 0.00 0.00 58 1017.1
20260906071903 85 0 0.0 0.0 0.00 0.00 0.00 57 1017.2
20260906071803 85 0 0.0 0.0 0.00 0.00 0.00 56 1017.2
20260906071703 85 0 0.0 0.0 0.00 0.00 0.00 56 1017.1
20260906071603 85 0 0.0 0.0 0.00 0.00 0.00 57 1017.1
20260906071503 85 0 0.0 0.0 0.00 0.00 0.00 57 1017.1
20260906071403 85 0 0.0 0.0 0.00 0.00 0.00 57 1017.1
20260906071303 85 0 0.0 0.0 0.00 0.00 0.00 56 1017.1
20260906071203 85 0 0.0 0.0 0.00 0.00 0.00 57 1017.2
20260906071103 85 0 0.0 0.0 0.00 0.00 0.00 57 1017.1
20260906071003 85 0 0.0 0.0 0.00 0.00 0.00 57 1017.2
20260906070903 85 0 0.0 0.0 0.00 0.00 0.00 57 1017.1
20260906070803 85 0 0.0 0.0 0.00 0.00 0.00 57 1017.2
20260906070703 85 0 0.0 0.0 0.00 0.00 0.00 57 1017.1
20260906070603 85 0 0.0 0.0 0.00 0.00 0.00 57 1017.0
20260906070503 85 0 0.0 0.0 0.00 0.00 0.00 56 1017.2
20260906070403 85 0 0.0 0.0 0.00 0.00 0.00 57 1017.2
20260906070303 85 0 0.0 0.0 0.00 0.00 0.00 57 1017.0
20260906070203 84 0 0.0 0.0 0.00 0.00 0.00 58 1017.3
20260906070103 84 0 0.0 0.0 0.00 0.00 0.00 58 1017.0
20260906070004 83 0 0.0 0.0 0.00 0.00 0.00 59 1017.0
20260906065903 83 0 0.0 0.0 0.00 0.00 0.00 58 1017.2
20260906065803 83 0 0.0 0.0 0.00 0.00 0.00 58 1017.1
20260906065703 83 0 0.0 0.0 0.00 0.00 0.00 58 1016.9
20260906065603 83 0 0.0 0.0 0.00 0.00 0.00 58 1017.1
20260906065503 84 0 0.0 0.0 0.00 0.00 0.00 58 1016.9
20260906065403 84 0 0.0 0.0 0.00 0.00 0.00 58 1016.9
20260906065305 84 0 0.0 0.0 0.00 0.00 0.00 57 1017.3
20260906065203 84 0 0.0 0.0 0.00 0.00 0.00 57 1016.9
20260906065103 85 0 0.0 0.0 0.00 0.00 0.00 57 1017.0
20260906065003 85 0 0.0 0.0 0.00 0.00 0.00 57 1017.1
20260906064903 85 0 0.0 0.0 0.00 0.00 0.00 57 1017.0
20260906064803 85 0 0.0 0.0 0.00 0.00 0.00 57 1017.0
20260906064703 85 0 0.0 0.0 0.00 0.00 0.00 58 1017.0
20260906064603 85 0 0.0 0.0 0.00 0.00 0.00 58 1017.0
20260906064504 84 0 0.0 0.0 0.00 0.00 0.00 58 1017.0
20260906064403 85 0 0.0 0.0 0.00 0.00 0.00 58 1017.1
20260906064303 85 0 0.0 0.0 0.00 0.00 0.00 59 1016.9
20260906064203 85 0 0.0 0.0 0.00 0.00 0.00 59 1017.1
20260906064103 85 0 0.0 0.0 0.00 0.00 0.00 59 1016.8
20260906064003 84 0 0.0 0.0 0.00 0.00 0.00 58 1016.9
20260906063903 85 0 0.0 0.0 0.00 0.00 0.00 58 1016.9
20260906063803 85 0 0.0 0.0 0.00 0.00 0.00 58 1017.1
20260906063703 84 0 0.0 0.0 0.00 0.00 0.00 59 1016.8
20260906063603 84 0 0.0 0.0 0.00 0.00 0.00 59 1016.8
20260906063503 84 0 0.0 0.0 0.00 0.00 0.00 59 1017.0
20260906063403 83 0 0.0 0.0 0.00 0.00 0.00 59 1017.0
20260906063303 83 0 0.0 0.0 0.00 0.00 0.00 59 1016.9
20260906063203 83 0 0.0 0.0 0.00 0.00 0.00 58 1017.0
20260906063103 84 0 0.0 0.0 0.00 0.00 0.00 58 1017.0
20260906063003 83 0 0.0 0.0 0.00 0.00 0.00 59 1017.0
20260906062903 83 0 0.0 0.0 0.00 0.01 0.00 59 1017.1
20260906062803 83 0 0.0 0.0 0.00 0.01 0.00 58 1017.0
20260906062703 84 0 0.0 0.0 0.00 0.01 0.00 58 1017.1
20260906062603 84 0 0.0 0.0 0.00 0.01 0.00 59 1016.9
20260906062503 84 0 0.0 0.0 0.00 0.01 0.00 59 1016.9
20260906062403 83 0 0.0 0.0 0.00 0.01 0.00 59 1017.0
20260906062306 83 0 0.0 0.0 0.00 0.01 0.00 59 1016.9
20260906062203 82 0 0.0 0.0 0.00 0.01 0.00 60 1017.0
20260906062103 82 0 0.0 0.0 0.00 0.01 0.00 60 1016.9
20260906062003 82 0 0.0 0.0 0.00 0.01 0.00 60 1016.9
20260906061903 81 0 0.0 0.0 0.00 0.01 0.00 60 1016.9
20260906061803 81 0 0.0 0.0 0.00 0.01 0.00 60 1016.9
20260906061703 81 0 0.0 0.0 0.00 0.01 0.00 60 1017.1
20260906061603 81 0 0.0 0.0 0.00 0.01 0.00 60 1016.9
20260906061503 81 0 0.0 0.0 0.00 0.01 0.00 60 1016.9
20260906061403 81 0 0.0 0.0 0.00 0.01 0.00 60 1016.8
20260906061303 81 0 0.0 0.0 0.00 0.01 0.00 60 1017.1
20260906061203 81 0 0.0 0.0 0.00 0.01 0.00 60 1016.7
20260906061103 81 0 0.0 0.0 0.00 0.01 0.00 60 1016.8
20260906061003 81 0 0.0 0.0 0.00 0.01 0.00 60 1016.9
20260906060903 81 0 0.0 0.0 0.00 0.01 0.00 60 1016.8
20260906060803 81 0 0.0 0.0 0.00 0.01 0.00 60 1016.9
20260906060703 81 0 0.0 0.0 0.00 0.01 0.00 60 1016.9
20260906060603 81 0 0.0 0.0 0.00 0.01 0.00 60 1016.9
20260906060503 80 0 0.0 0.0 0.00 0.01 0.00 59 1016.8
20260906060403 80 0 0.0 0.0 0.00 0.01 0.00 59 1016.8
20260906060303 80 0 0.0 0.0 0.00 0.01 0.00 59 1016.9
20260906060203 81 0 0.0 0.0 0.00 0.01 0.00 58 1016.8
20260906060103 81 0 0.0 0.0 0.00 0.01 0.00 58 1016.7
20260906060003 81 0 0.0 0.0 0.00 0.01 0.00 57 1017.0
20260906055903 82 0 0.0 0.0 0.00 0.01 0.00 56 1016.8
20260906055803 82 0 0.0 0.0 0.00 0.01 0.00 57 1016.7
20260906055703 82 0 0.0 0.0 0.00 0.01 0.00 57 1016.7
20260906055603 82 0 0.0 0.0 0.00 0.01 0.00 57 1016.9
20260906055503 82 0 0.0 0.0 0.00 0.01 0.00 57 1016.7
20260906055403 82 0 0.0 0.0 0.00 0.01 0.00 57 1016.8
20260906055306 82 0 0.0 0.0 0.00 0.01 0.00 56 1016.7
20260906055203 82 0 0.0 0.0 0.00 0.01 0.00 56 1016.8
20260906055103 82 0 0.0 0.0 0.00 0.01 0.00 56 1016.6
20260906055003 82 0 0.0 0.0 0.00 0.01 0.00 57 1016.7
20260906054903 82 0 0.0 0.0 0.00 0.01 0.00 56 1016.7
20260906054803 82 0 0.0 0.0 0.00 0.01 0.00 56 1016.7
20260906054703 82 0 0.0 0.0 0.00 0.01 0.00 56 1016.6
20260906054603 82 0 0.0 0.0 0.00 0.01 0.00 55 1016.7
20260906054504 82 0 0.0 0.0 0.00 0.01 0.00 56 1016.6
20260906054403 82 0 0.0 0.0 0.00 0.01 0.00 57 1016.8
20260906054303 82 0 0.0 0.0 0.00 0.01 0.00 56 1016.6
20260906054203 81 0 0.0 0.0 0.00 0.01 0.00 56 1016.7
20260906054103 81 0 0.0 0.0 0.00 0.01 0.00 56 1016.9
20260906054003 81 0 0.0 0.0 0.00 0.01 0.00 56 1016.8
20260906053903 81 0 0.0 0.0 0.00 0.01 0.00 56 1016.6
20260906053803 81 0 0.0 0.0 0.00 0.01 0.00 56 1016.7
20260906053703 81 0 0.0 0.0 0.00 0.01 0.00 56 1016.8
20260906053603 81 0 0.0 0.0 0.00 0.01 0.00 57 1016.6
20260906053503 80 0 0.0 0.0 0.00 0.01 0.00 57 1016.7
20260906053403 80 0 0.0 0.0 0.00 0.01 0.00 57 1016.7
20260906053303 80 0 0.0 0.0 0.00 0.01 0.00 57 1016.9
20260906053203 80 0 0.0 0.0 0.00 0.01 0.00 57 1016.6
20260906053103 80 0 0.0 0.0 0.00 0.01 0.00 58 1016.8
20260906053003 80 0 0.0 0.0 0.00 0.01 0.00 58 1016.7
20260906052903 80 0 0.0 0.0 0.00 0.01 0.00 58 1016.7
20260906052803 80 0 0.0 0.0 0.00 0.01 0.00 57 1016.7
20260906052703 80 0 0.0 0.0 0.00 0.01 0.00 57 1016.8
20260906052603 80 0 0.0 0.0 0.00 0.01 0.00 57 1016.8
20260906052503 80 0 0.0 0.0 0.00 0.01 0.00 57 1016.6
20260906052403 80 0 0.0 0.0 0.00 0.01 0.00 58 1016.8
20260906052305 78 0 0.0 0.0 0.00 0.01 0.00 59 1016.8
20260906052203 78 0 0.0 0.0 0.00 0.01 0.00 59 1016.6
20260906052103 78 0 0.0 0.0 0.00 0.01 0.00 59 1016.6
20260906052003 78 0 0.0 0.0 0.00 0.01 0.00 59 1016.7
20260906051903 78 0 0.0 0.0 0.00 0.01 0.00 60 1016.7
20260906051803 78 0 0.0 0.0 0.00 0.01 0.00 60 1016.5
20260906051703 78 0 0.0 0.0 0.00 0.01 0.00 60 1016.6
20260906051603 77 0 0.0 0.0 0.00 0.01 0.00 61 1016.6
20260906051503 77 0 0.0 0.0 0.00 0.01 0.00 60 1016.7
20260906051403 77 0 0.0 0.0 0.00 0.01 0.00 60 1016.7
20260906051303 77 0 0.0 0.0 0.00 0.01 0.00 60 1016.7
20260906051203 77 0 0.0 0.0 0.00 0.01 0.00 61 1016.5
20260906051103 76 0 0.0 0.0 0.00 0.01 0.00 62 1016.7
20260906051003 76 0 0.0 0.0 0.00 0.01 0.00 61 1016.6
20260906050903 76 0 0.0 0.0 0.00 0.01 0.00 62 1016.5
20260906050803 76 0 0.0 0.0 0.00 0.01 0.00 62 1016.3
20260906050703 76 0 0.0 0.0 0.00 0.01 0.00 62 1016.6
20260906050603 76 0 0.0 0.0 0.00 0.01 0.00 62 1016.7
20260906050503 77 0 0.0 0.0 0.00 0.01 0.00 62 1016.6
20260906050403 77 0 0.0 0.0 0.00 0.01 0.00 62 1016.5
20260906050303 77 0 0.0 0.0 0.00 0.01 0.00 62 1016.7
20260906050203 77 0 0.0 0.0 0.00 0.01 0.00 62 1016.5
20260906050003 77 0 0.0 0.0 0.00 0.01 0.00 62 1016.5
20260906045903 76 0 0.0 0.0 0.00 0.01 0.00 64 1016.4
20260906045803 76 0 0.0 0.0 0.00 0.01 0.00 64 1016.6
20260906045703 76 0 0.0 0.0 0.00 0.01 0.00 64 1016.6
20260906045603 76 0 0.0 0.0 0.00 0.01 0.00 65 1016.5
20260906045503 76 0 0.0 0.0 0.00 0.01 0.00 65 1016.6
20260906045403 76 0 0.0 0.0 0.00 0.01 0.00 65 1016.5
20260906045305 76 0 0.0 0.0 0.00 0.01 0.00 64 1016.7
20260906045203 76 0 0.0 0.0 0.00 0.01 0.00 64 1016.7
20260906045103 76 0 0.0 0.0 0.00 0.01 0.00 65 1016.7
20260906045003 76 0 0.0 0.0 0.00 0.01 0.00 66 1016.6
20260906044903 76 0 0.0 0.0 0.00 0.01 0.00 65 1016.5
20260906044803 76 0 0.0 0.0 0.00 0.01 0.00 65 1016.4
20260906044703 76 0 0.0 0.0 0.00 0.01 0.00 66 1016.4
20260906044603 76 0 0.0 0.0 0.00 0.01 0.00 66 1016.5
20260906044503 76 0 0.0 0.0 0.00 0.01 0.00 66 1016.5
20260906044403 76 0 0.0 0.0 0.00 0.01 0.00 66 1016.6
20260906044303 76 0 0.0 0.0 0.00 0.01 0.00 65 1016.6
20260906044203 76 0 0.0 0.0 0.00 0.01 0.00 65 1016.5
20260906044103 76 0 0.0 0.0 0.00 0.01 0.00 65 1016.6
20260906044004 76 0 0.0 0.0 0.00 0.01 0.00 65 1016.6
20260906043903 76 0 0.0 0.0 0.00 0.01 0.00 65 1016.6
20260906043804 76 0 0.0 0.0 0.00 0.01 0.00 65 1016.6
20260906043703 76 0 0.0 0.0 0.00 0.01 0.00 66 1016.5
20260906043603 76 0 0.0 0.0 0.00 0.01 0.00 66 1016.5
20260906043503 76 0 0.0 0.0 0.00 0.01 0.00 66 1016.5
20260906043403 76 0 0.0 0.0 0.00 0.01 0.00 66 1016.4
20260906043303 76 0 0.0 0.0 0.00 0.01 0.00 65 1016.7
20260906043203 76 0 0.0 0.0 0.00 0.01 0.00 65 1016.6
20260906043103 76 0 0.0 0.0 0.00 0.01 0.00 65 1016.5
20260906043004 76 0 0.0 0.0 0.00 0.01 0.00 65 1016.6
20260906042904 76 0 0.0 0.0 0.00 0.01 0.00 64 1016.7
20260906042803 76 0 0.0 0.0 0.00 0.01 0.00 64 1016.8
20260906042703 76 0 0.0 0.0 0.00 0.01 0.00 64 1016.6
20260906042603 76 0 0.0 0.0 0.00 0.01 0.00 64 1016.6
20260906042503 77 0 0.0 0.0 0.00 0.01 0.00 63 1016.4
20260906042403 77 0 0.0 0.0 0.00 0.01 0.00 63 1016.5
20260906042306 77 0 0.0 0.0 0.00 0.01 0.00 63 1016.6
20260906042203 77 0 0.0 0.0 0.00 0.01 0.00 63 1016.4
20260906042104 77 0 0.0 0.0 0.00 0.01 0.00 63 1016.6
20260906042003 77 0 0.0 0.0 0.00 0.01 0.00 63 1016.6
20260906041903 77 0 0.0 0.0 0.00 0.01 0.00 63 1016.4
20260906041803 77 0 0.0 0.0 0.00 0.01 0.00 63 1016.4
20260906041703 77 0 0.0 0.0 0.00 0.01 0.00 63 1016.6
20260906041603 77 0 0.0 0.0 0.00 0.01 0.00 63 1016.6
20260906041503 77 0 0.0 0.0 0.00 0.01 0.00 63 1016.5
20260906041403 77 0 0.0 0.0 0.00 0.01 0.00 63 1016.5
20260906041303 77 0 0.0 0.0 0.00 0.01 0.00 63 1016.5
20260906041203 76 0 0.0 0.0 0.00 0.01 0.00 63 1016.6
20260906041103 76 0 0.0 0.0 0.00 0.01 0.00 63 1016.5
20260906041003 77 0 0.0 0.0 0.00 0.01 0.00 62 1016.5
20260906040903 77 0 0.0 0.0 0.00 0.01 0.00 63 1016.4
20260906040803 77 0 0.0 0.0 0.00 0.01 0.00 63 1016.5
20260906040703 77 0 0.0 0.0 0.00 0.01 0.00 62 1016.5
20260906040603 77 0 0.0 0.0 0.00 0.01 0.00 62 1016.5
20260906040503 76 0 0.0 0.0 0.00 0.01 0.00 63 1016.4
20260906040403 76 0 0.0 0.0 0.00 0.01 0.00 63 1016.2
20260906040303 76 0 0.0 0.0 0.00 0.01 0.00 63 1016.5
20260906040203 76 0 0.0 0.0 0.00 0.01 0.00 63 1016.4
20260906040103 76 0 0.0 0.0 0.00 0.01 0.00 62 1016.5
20260906040004 76 0 0.0 0.0 0.00 0.01 0.00 62 1016.3
20260906035903 77 0 0.0 0.0 0.00 0.01 0.00 62 1016.5
20260906035803 77 0 0.0 0.0 0.00 0.01 0.00 62 1016.4
20260906035703 77 0 0.0 0.0 0.00 0.01 0.00 62 1016.6
20260906035603 77 0 0.0 0.0 0.00 0.01 0.00 62 1016.5
20260906035503 77 0 0.0 0.0 0.00 0.01 0.00 62 1016.4
20260906035403 77 0 0.0 0.0 0.00 0.01 0.00 61 1016.5
20260906035306 77 0 0.0 0.0 0.00 0.01 0.00 62 1016.3
20260906035204 77 0 0.0 0.0 0.00 0.01 0.00 62 1016.4
20260906035103 77 0 0.0 0.0 0.00 0.01 0.00 62 1016.2
20260906035003 77 0 0.0 0.0 0.00 0.01 0.00 62 1016.6
20260906034903 77 0 0.0 0.0 0.00 0.01 0.00 63 1016.3
20260906034803 77 0 0.0 0.0 0.00 0.01 0.00 62 1016.4
20260906034703 77 0 0.0 0.0 0.00 0.01 0.00 62 1016.4
20260906034603 77 0 0.0 0.0 0.00 0.01 0.00 62 1016.3
20260906034503 77 0 0.0 0.0 0.00 0.01 0.00 62 1016.6
20260906034403 77 0 0.0 0.0 0.00 0.01 0.00 62 1016.3
20260906034303 77 0 0.0 0.0 0.00 0.01 0.00 62 1016.4
20260906034203 77 0 0.0 0.0 0.00 0.01 0.00 62 1016.5
20260906034103 77 0 0.0 0.0 0.00 0.01 0.00 62 1016.4
20260906034003 77 0 0.0 0.0 0.00 0.01 0.00 62 1016.3
20260906033903 77 0 0.0 0.0 0.00 0.01 0.00 62 1016.2
20260906033803 77 0 0.0 0.0 0.00 0.01 0.00 62 1016.5
20260906033703 77 0 0.0 0.0 0.00 0.01 0.00 62 1016.2
20260906033603 77 0 0.0 0.0 0.00 0.01 0.00 62 1016.4
20260906033503 77 0 0.0 0.0 0.00 0.01 0.00 62 1016.3
20260906033403 77 0 0.0 0.0 0.00 0.01 0.00 62 1016.2
20260906033303 77 0 0.0 0.0 0.00 0.01 0.00 62 1016.2
20260906033203 76 0 0.0 0.0 0.00 0.01 0.00 63 1016.3
20260906033103 76 0 0.0 0.0 0.00 0.01 0.00 63 1016.2
20260906033003 76 0 0.0 0.0 0.00 0.01 0.00 64 1016.4
20260906032903 76 0 0.0 0.0 0.00 0.01 0.00 63 1016.2
20260906032803 76 0 0.0 0.0 0.00 0.01 0.00 62 1016.4
20260906032703 76 0 0.0 0.0 0.00 0.01 0.00 62 1016.3
20260906032603 76 0 0.0 0.0 0.00 0.01 0.00 62 1016.3
20260906032503 77 0 0.0 0.0 0.00 0.01 0.00 62 1016.2
20260906032403 77 0 0.0 0.0 0.00 0.01 0.00 62 1016.2
20260906032306 77 0 0.0 0.0 0.00 0.01 0.00 62 1016.4
20260906032203 77 0 0.0 0.0 0.00 0.01 0.00 62 1016.3
20260906032103 77 0 0.0 0.0 0.00 0.01 0.00 62 1016.3
20260906032003 77 0 0.0 0.0 0.00 0.01 0.00 62 1016.4
20260906031903 77 0 0.0 0.0 0.00 0.01 0.00 62 1016.5
20260906031803 77 0 0.0 0.0 0.00 0.01 0.00 62 1016.3
20260906031703 77 0 0.0 0.0 0.00 0.01 0.00 62 1016.3
20260906031603 77 0 0.0 0.0 0.00 0.01 0.00 62 1016.3
20260906031503 77 0 0.0 0.0 0.00 0.01 0.00 61 1016.2
20260906031403 77 0 0.0 0.0 0.00 0.01 0.00 61 1016.1
20260906031305 77 0 0.0 0.0 0.00 0.01 0.00 61 1016.1
20260906031203 77 0 0.0 0.0 0.00 0.01 0.00 61 1016.3
20260906031105 77 0 0.0 0.0 0.00 0.01 0.00 61 1016.2
20260906031003 77 0 0.0 0.0 0.00 0.01 0.00 61 1016.2
20260906030904 78 0 0.0 0.0 0.00 0.01 0.00 60 1016.3
20260906030803 78 0 0.0 0.0 0.00 0.01 0.00 60 1016.2
20260906030703 78 0 0.0 0.0 0.00 0.01 0.00 60 1016.3
20260906030603 78 0 0.0 0.0 0.00 0.01 0.00 60 1016.3
20260906030503 78 0 0.0 0.0 0.00 0.01 0.00 60 1016.2
20260906030403 78 0 0.0 0.0 0.00 0.01 0.00 60 1016.2
20260906030303 78 0 0.0 0.0 0.00 0.01 0.00 60 1016.2
20260906030203 78 0 0.0 0.0 0.00 0.01 0.00 60 1016.2
20260906030004 78 0 0.0 0.0 0.00 0.01 0.00 60 1016.1
20260906025903 78 0 0.0 0.0 0.00 0.01 0.00 60 1016.2
20260906025803 78 0 0.0 0.0 0.00 0.01 0.00 61 1016.1
20260906025703 78 0 0.0 0.0 0.00 0.01 0.00 61 1016.4
20260906025603 78 0 0.0 0.0 0.00 0.01 0.00 61 1016.3
20260906025503 78 0 0.0 0.0 0.00 0.01 0.00 61 1016.2
20260906025403 78 0 0.0 0.0 0.00 0.01 0.00 61 1016.4
20260906025306 77 0 0.0 0.0 0.00 0.01 0.00 61 1016.2
20260906025203 78 0 0.0 0.0 0.00 0.01 0.00 61 1016.1
20260906025103 78 0 0.0 0.0 0.00 0.01 0.00 61 1016.2
20260906025003 78 0 0.0 0.0 0.00 0.01 0.00 61 1016.2
20260906024903 78 0 0.0 0.0 0.00 0.01 0.00 61 1016.3
20260906024803 78 0 0.0 0.0 0.00 0.01 0.00 61 1016.3
20260906024703 78 0 0.0 0.0 0.00 0.01 0.00 61 1016.3
20260906024603 78 0 0.0 0.0 0.00 0.01 0.00 61 1016.1
20260906024503 77 0 0.0 0.0 0.00 0.01 0.00 61 1016.3
20260906024403 77 0 0.0 0.0 0.00 0.01 0.00 61 1016.3
20260906024303 77 0 0.0 0.0 0.00 0.01 0.00 62 1016.3
20260906024203 77 0 0.0 0.0 0.00 0.01 0.00 62 1016.1
20260906024103 78 0 0.0 0.0 0.00 0.01 0.00 62 1016.4
20260906024003 78 0 0.0 0.0 0.00 0.01 0.00 62 1016.3
20260906023903 78 0 0.0 0.0 0.00 0.01 0.00 62 1016.1
20260906023803 78 0 0.0 0.0 0.00 0.01 0.00 62 1016.0
20260906023703 78 0 0.0 0.0 0.00 0.01 0.00 62 1016.1
20260906023603 78 0 0.0 0.0 0.00 0.01 0.00 62 1016.2
20260906023503 78 0 0.0 0.0 0.00 0.01 0.00 61 1016.3
20260906023403 78 0 0.0 0.0 0.00 0.01 0.00 62 1016.3
20260906023303 78 0 0.0 0.0 0.00 0.01 0.00 62 1016.3
20260906023203 77 0 0.0 0.0 0.00 0.01 0.00 62 1016.1
20260906023103 78 0 0.0 0.0 0.00 0.01 0.00 62 1016.4
20260906023003 77 0 0.0 0.0 0.00 0.01 0.00 62 1016.3
20260906022903 77 0 0.0 0.0 0.00 0.01 0.00 62 1016.0
20260906022803 77 0 0.0 0.0 0.00 0.01 0.00 62 1016.1
20260906022703 77 0 0.0 0.0 0.00 0.01 0.00 62 1016.3
20260906022603 77 0 0.0 0.0 0.00 0.01 0.00 62 1016.3
20260906022503 77 0 0.0 0.0 0.00 0.01 0.00 62 1016.3
20260906022403 77 0 0.0 0.0 0.00 0.01 0.00 62 1016.2
20260906022306 77 0 0.0 0.0 0.00 0.01 0.00 62 1016.3
20260906022203 77 0 0.0 0.0 0.00 0.01 0.00 63 1016.4
20260906022103 77 0 0.0 0.0 0.00 0.01 0.00 63 1016.3
20260906022003 77 0 0.0 0.0 0.00 0.01 0.00 63 1016.3
20260906021903 77 0 0.0 0.0 0.00 0.01 0.00 63 1016.3
20260906021803 77 0 0.0 0.0 0.00 0.01 0.00 62 1016.3
20260906021703 77 0 0.0 0.0 0.00 0.01 0.00 62 1016.3
20260906021603 77 0 0.0 0.0 0.00 0.01 0.00 62 1016.3
20260906021503 77 0 0.0 0.0 0.00 0.01 0.00 63 1016.3
20260906021403 77 0 0.0 0.0 0.00 0.01 0.00 63 1016.3
20260906021303 77 0 0.0 0.0 0.00 0.01 0.00 63 1016.3
20260906021203 77 0 0.0 0.0 0.00 0.01 0.00 63 1016.5
20260906021103 78 0 0.0 0.0 0.00 0.01 0.00 62 1016.4
20260906021003 78 0 0.0 0.0 0.00 0.01 0.00 63 1016.4
20260906020903 78 0 0.0 0.0 0.00 0.01 0.00 63 1016.3
20260906020803 78 0 0.0 0.0 0.00 0.01 0.00 63 1016.3
20260906020703 78 0 0.0 0.0 0.00 0.01 0.00 63 1016.3
20260906020604 77 0 0.0 0.0 0.00 0.01 0.00 63 1016.6
20260906020504 78 0 0.0 0.0 0.00 0.01 0.00 62 1016.2
20260906020403 78 0 0.0 0.0 0.00 0.01 0.00 62 1016.6
20260906020303 78 0 0.0 0.0 0.00 0.01 0.00 62 1016.4
20260906020203 78 0 0.0 0.0 0.00 0.01 0.00 62 1016.6
20260906020103 78 0 0.0 0.0 0.00 0.01 0.00 62 1016.3
20260906020004 78 0 0.0 0.0 0.00 0.01 0.00 62 1016.5
20260906015905 78 0 0.0 0.0 0.00 0.01 0.00 61 1016.3
20260906015804 79 0 0.0 0.0 0.00 0.01 0.00 61 1016.4
20260906015703 78 0 0.0 0.0 0.00 0.01 0.00 60 1016.4
20260906015603 78 0 0.0 0.0 0.00 0.01 0.00 62 1016.6
20260906015503 78 0 0.0 0.0 0.00 0.01 0.00 63 1016.5
20260906015403 78 0 0.0 0.0 0.00 0.01 0.00 63 1016.4
20260906015306 78 0 0.0 0.0 0.00 0.01 0.00 63 1016.4
20260906015203 78 0 0.0 0.0 0.00 0.01 0.00 63 1016.3
20260906015104 78 0 0.0 0.0 0.00 0.01 0.00 62 1016.4
20260906015004 78 0 0.0 0.0 0.00 0.01 0.00 62 1016.3
20260906014903 79 0 0.0 0.0 0.00 0.01 0.00 61 1016.5
20260906014803 79 0 0.0 0.0 0.00 0.01 0.00 61 1016.4
20260906014703 78 0 0.0 0.0 0.00 0.01 0.00 62 1016.5
20260906014603 78 0 0.0 0.0 0.00 0.01 0.00 62 1016.6
20260906014503 78 0 0.0 0.0 0.00 0.01 0.00 62 1016.5
20260906014403 78 0 0.0 0.0 0.00 0.01 0.00 63 1016.4
20260906014303 78 0 0.0 0.0 0.00 0.01 0.00 63 1016.5
20260906014204 78 0 0.0 0.0 0.00 0.01 0.00 63 1016.5
20260906014103 78 0 0.0 0.0 0.00 0.01 0.00 63 1016.5
20260906014003 78 0 0.0 0.0 0.00 0.01 0.00 63 1016.5
20260906013903 78 0 0.0 0.0 0.00 0.01 0.00 62 1016.4
20260906013803 78 0 0.0 0.0 0.00 0.01 0.00 62 1016.5
20260906013703 78 0 0.0 0.0 0.00 0.01 0.00 62 1016.2
20260906013603 78 0 0.0 0.0 0.00 0.01 0.00 61 1016.5
20260906013503 78 0 0.0 0.0 0.00 0.01 0.00 61 1016.2
20260906013403 78 0 0.0 0.0 0.00 0.01 0.00 62 1016.6
20260906013303 78 0 0.0 0.0 0.00 0.01 0.00 62 1016.6
20260906013203 78 0 0.0 0.0 0.00 0.01 0.00 62 1016.6
20260906013103 78 0 0.0 0.0 0.00 0.01 0.00 62 1016.6
20260906013003 78 0 0.0 0.0 0.00 0.01 0.00 62 1016.5
20260906012903 78 0 0.0 0.0 0.00 0.01 0.00 62 1016.4
20260906012803 78 0 0.0 0.0 0.00 0.01 0.00 63 1016.5
20260906012703 78 0 0.0 0.0 0.00 0.01 0.00 62 1016.4
20260906012603 78 0 0.0 0.0 0.00 0.01 0.00 62 1016.6
20260906012503 78 0 0.0 0.0 0.00 0.01 0.00 62 1016.7
20260906012403 78 0 0.0 0.0 0.00 0.01 0.00 62 1016.7
20260906012306 78 0 0.0 0.0 0.00 0.01 0.00 62 1016.6
20260906012203 78 0 0.0 0.0 0.00 0.01 0.00 62 1016.5
20260906012103 78 0 0.0 0.0 0.00 0.01 0.00 62 1016.6
20260906012003 78 0 0.0 0.0 0.00 0.01 0.00 61 1016.7
20260906011903 78 0 0.0 0.0 0.00 0.01 0.00 61 1016.7
20260906011803 78 0 0.0 0.0 0.00 0.01 0.00 61 1016.7
20260906011703 78 0 0.0 0.0 0.00 0.01 0.00 61 1016.7
20260906011603 78 0 0.0 0.0 0.00 0.01 0.00 61 1016.5
20260906011503 79 0 0.0 0.0 0.00 0.01 0.00 61 1016.6
20260906011403 79 0 0.0 0.0 0.00 0.01 0.00 60 1016.6
20260906011303 79 0 0.0 0.0 0.00 0.01 0.00 60 1016.6
20260906011203 79 0 0.0 0.0 0.00 0.01 0.00 60 1016.7
20260906011103 79 0 0.0 0.0 0.00 0.01 0.00 60 1016.4
20260906011003 79 0 0.0 0.0 0.00 0.01 0.00 60 1016.6
20260906010903 79 0 0.0 0.0 0.00 0.01 0.00 59 1016.8
20260906010803 80 0 0.0 0.0 0.00 0.01 0.00 59 1016.5
20260906010703 79 0 0.0 0.0 0.00 0.01 0.00 60 1016.6
20260906010603 79 0 0.0 0.0 0.00 0.01 0.00 60 1016.7
20260906010503 79 0 0.0 0.0 0.00 0.01 0.00 60 1016.4
20260906010403 79 0 0.0 0.0 0.00 0.01 0.00 60 1016.5
20260906010303 78 0 0.0 0.0 0.00 0.01 0.00 61 1016.7
20260906010203 78 0 0.0 0.0 0.00 0.01 0.00 61 1016.7
20260906010103 78 0 0.0 0.0 0.00 0.01 0.00 61 1016.7
20260906010003 79 0 0.0 0.0 0.00 0.01 0.00 61 1016.5
20260906005903 79 0 0.0 0.0 0.00 0.01 0.00 61 1016.7
20260906005803 79 0 0.0 0.0 0.00 0.01 0.00 60 1016.7
20260906005703 79 0 0.0 0.0 0.00 0.01 0.00 60 1016.7
20260906005603 79 0 0.0 0.0 0.00 0.01 0.00 60 1016.5
20260906005503 79 0 0.0 0.0 0.00 0.01 0.00 60 1016.7
20260906005404 79 0 0.0 0.0 0.00 0.01 0.00 60 1016.7
20260906005306 79 0 0.0 0.0 0.00 0.01 0.00 61 1016.7
20260906005203 79 0 0.0 0.0 0.00 0.01 0.00 61 1016.6
20260906005103 79 0 0.0 0.0 0.00 0.01 0.00 61 1016.7
20260906005004 79 0 0.0 0.0 0.00 0.01 0.00 60 1016.7
20260906004903 79 0 0.0 0.0 0.00 0.01 0.00 61 1016.8
20260906004803 79 0 0.0 0.0 0.00 0.01 0.00 61 1016.6
20260906004704 79 0 0.0 0.0 0.00 0.01 0.00 62 1016.6
20260906004603 79 0 0.0 0.0 0.00 0.01 0.00 62 1016.7
20260906004503 79 0 0.0 0.0 0.00 0.01 0.00 62 1016.6
20260906004403 79 0 0.0 0.0 0.00 0.01 0.00 61 1016.7
20260906004303 79 0 0.0 0.0 0.00 0.01 0.00 62 1016.6
20260906004203 79 0 0.0 0.0 0.00 0.01 0.00 62 1016.7
20260906004104 79 0 0.0 0.0 0.00 0.01 0.00 62 1016.6
20260906004003 79 0 0.0 0.0 0.00 0.01 0.00 62 1016.6
20260906003903 79 0 0.0 0.0 0.00 0.01 0.00 62 1016.5
20260906003803 79 0 0.0 0.0 0.00 0.01 0.00 62 1016.2
20260906003703 79 0 0.0 0.0 0.00 0.01 0.00 62 1016.5
20260906003603 80 0 0.0 0.0 0.00 0.01 0.00 60 1016.6
20260906003503 79 0 0.0 0.0 0.00 0.01 0.00 62 1016.7
20260906003403 79 0 0.0 0.0 0.00 0.01 0.00 62 1016.4
20260906003303 80 0 0.0 0.0 0.00 0.01 0.00 61 1016.9
20260906003203 80 45 0.0 1.7 0.00 0.01 0.00 62 1016.6
20260906003103 79 54 0.0 1.7 0.00 0.01 0.00 62 1016.6
20260906003003 80 64 0.0 1.7 0.00 0.01 0.00 62 1016.7
20260906002903 80 67 0.0 1.7 0.00 0.01 0.00 62 1016.7
20260906002803 80 55 0.9 3.5 0.00 0.01 0.00 61 1016.5
20260906002703 80 46 0.9 3.5 0.00 0.01 0.00 61 1016.6
20260906002603 80 46 0.9 3.5 0.00 0.01 0.00 60 1016.7
20260906002503 81 46 0.9 3.5 0.00 0.01 0.00 59 1016.6
20260906002403 81 46 0.9 3.5 0.00 0.01 0.00 58 1016.6
20260906002306 81 46 0.9 3.5 0.00 0.01 0.00 58 1016.4
20260906002203 81 46 0.9 3.5 0.00 0.01 0.00 58 1016.4
20260906002103 81 45 0.9 3.5 0.00 0.01 0.00 59 1016.4
20260906002003 81 32 1.7 3.5 0.00 0.01 0.00 59 1016.5
20260906001903 81 32 1.7 3.5 0.00 0.01 0.00 59 1016.6
20260906001803 81 35 1.7 3.5 0.00 0.01 0.00 59 1016.7
20260906001703 81 37 1.7 3.5 0.00 0.01 0.00 59 1016.3
20260906001603 81 34 1.7 3.5 0.00 0.01 0.00 59 1016.8
20260906001503 81 33 1.7 3.5 0.00 0.01 0.00 59 1016.8
20260906001403 80 32 2.6 3.5 0.00 0.01 0.00 59 1016.5
20260906001303 80 30 2.6 3.5 0.00 0.01 0.00 59 1016.6
20260906001203 81 29 2.6 3.5 0.00 0.01 0.00 59 1016.5
20260906001103 81 27 2.6 3.5 0.00 0.01 0.00 59 1016.3
20260906001003 81 30 2.6 3.5 0.00 0.01 0.00 59 1016.5
20260906000903 81 31 1.7 3.5 0.00 0.01 0.00 59 1016.7
20260906000803 81 28 1.7 3.5 0.00 0.01 0.00 59 1016.5
20260906000703 81 29 1.7 1.7 0.00 0.01 0.00 59 1016.4
20260906000603 81 31 1.7 1.7 0.00 0.01 0.00 59 1016.5
20260906000503 81 32 1.7 1.7 0.00 0.01 0.00 59 1016.5
20260906000403 81 36 1.7 1.7 0.00 0.01 0.00 59 1016.6
20260906000304 81 38 1.7 1.7 0.00 0.01 0.00 59 1016.6
20260906000204 81 40 1.7 1.7 0.00 0.01 0.00 59 1016.4
20260906000103 81 41 1.7 1.7 0.00 0.01 0.00 59 1016.7
20260906000003 81 43 1.7 1.7 0.00 0.01 0.00 59 1016.7
20260905235903 81 43 1.7 1.7 0.00 0.01 0.00 59 1016.6
20260905235803 81 43 1.7 1.7 0.00 0.01 0.00 59 1016.6
20260905235703 81 39 1.7 1.7 0.00 0.01 0.00 59 1016.5
20260905235603 81 38 1.7 1.7 0.00 0.01 0.00 59 1016.5
20260905235503 81 41 1.7 1.7 0.00 0.01 0.00 59 1016.6
20260905235403 81 38 1.7 1.7 0.00 0.01 0.00 59 1016.7
20260905235306 81 38 1.7 1.7 0.00 0.01 0.00 59 1016.5
20260905235203 81 38 1.7 1.7 0.00 0.01 0.00 59 1016.7
20260905235103 81 40 1.7 1.7 0.00 0.01 0.00 59 1016.5
20260905235003 81 38 1.7 1.7 0.00 0.01 0.00 59 1016.7
20260905234903 81 38 1.7 1.7 0.00 0.01 0.00 59 1016.5
20260905234803 81 37 1.7 1.7 0.00 0.01 0.00 59 1016.5
20260905234703 81 39 1.7 1.7 0.00 0.01 0.00 60 1016.5
20260905234603 81 40 1.7 1.7 0.00 0.01 0.00 60 1016.8
20260905234503 81 40 1.7 1.7 0.00 0.01 0.00 60 1016.6
20260905234403 81 40 1.7 1.7 0.00 0.01 0.00 60 1016.6
20260905234303 81 42 0.9 1.7 0.00 0.01 0.00 60 1016.4
20260905234103 81 50 0.9 1.7 0.00 0.01 0.00 60 1016.5
20260905234003 81 54 0.9 1.7 0.00 0.01 0.00 59 1016.7
20260905233903 81 56 0.9 1.7 0.00 0.01 0.00 59 1016.6
20260905233803 81 56 0.9 1.7 0.00 0.01 0.00 59 1016.8
20260905233703 81 61 0.9 1.7 0.00 0.01 0.00 59 1016.5
20260905233603 81 60 0.9 1.7 0.00 0.01 0.00 59 1016.7
20260905233504 81 61 0.9 1.7 0.00 0.01 0.00 59 1016.6
20260905233403 81 61 0.9 1.7 0.00 0.01 0.00 59 1016.7
20260905233303 81 60 0.9 1.7 0.00 0.01 0.00 59 1016.5
20260905233203 81 57 0.9 1.7 0.00 0.01 0.00 59 1016.7
20260905233103 81 51 0.9 1.7 0.00 0.01 0.00 59 1016.6
20260905233003 81 53 0.9 1.7 0.00 0.01 0.00 59 1016.6
20260905232903 81 58 0.9 1.7 0.00 0.01 0.00 59 1016.6
20260905232803 81 61 0.9 1.7 0.00 0.01 0.00 59 1016.5
20260905232703 81 48 0.9 1.7 0.00 0.01 0.00 59 1016.7
20260905232604 81 51 0.9 1.7 0.00 0.01 0.00 60 1016.8
20260905232503 81 50 0.9 1.7 0.00 0.01 0.00 60 1016.7
20260905232403 81 49 0.9 1.7 0.00 0.01 0.00 60 1016.9
20260905232306 81 44 1.7 1.7 0.00 0.01 0.00 60 1016.9
20260905232203 81 42 1.7 1.7 0.00 0.01 0.00 60 1016.8
20260905232103 81 41 1.7 1.7 0.00 0.01 0.00 60 1016.8
20260905232003 81 37 1.7 3.5 0.00 0.01 0.00 60 1016.8
20260905231903 81 36 1.7 3.5 0.00 0.01 0.00 59 1016.8
20260905231803 81 34 1.7 3.5 0.00 0.01 0.00 59 1016.6
20260905231703 81 38 1.7 3.5 0.00 0.01 0.00 59 1016.7
20260905231603 81 36 1.7 3.5 0.00 0.01 0.00 60 1016.8
20260905231403 81 32 1.7 3.5 0.00 0.01 0.00 59 1016.8
20260905231303 81 38 1.7 3.5 0.00 0.01 0.00 59 1016.8
20260905231003 81 47 1.7 3.5 0.00 0.01 0.00 58 1016.8
20260905230903 81 47 1.7 1.7 0.00 0.01 0.00 58 1016.8
20260905230803 81 45 1.7 1.7 0.00 0.01 0.00 59 1017.0
20260905230703 81 42 1.7 1.7 0.00 0.01 0.00 60 1016.8
20260905230604 81 40 1.7 1.7 0.00 0.01 0.00 60 1017.0
20260905230503 81 39 1.7 1.7 0.00 0.01 0.00 59 1016.9
20260905230403 81 37 1.7 3.5 0.00 0.01 0.00 59 1016.9
20260905230303 81 37 1.7 3.5 0.00 0.01 0.00 59 1016.8
20260905230203 81 35 1.7 3.5 0.00 0.01 0.00 59 1017.0
20260905230103 81 35 1.7 3.5 0.00 0.01 0.00 60 1016.8
20260905230004 81 31 1.7 3.5 0.00 0.01 0.00 59 1017.0
20260905225903 81 30 1.7 3.5 0.00 0.01 0.00 60 1016.9
20260905225803 81 29 1.7 3.5 0.00 0.01 0.00 60 1016.7
20260905225703 81 31 1.7 3.5 0.00 0.01 0.00 60 1016.9
20260905225603 81 34 1.7 3.5 0.00 0.01 0.00 60 1016.9
20260905225503 81 37 1.7 3.5 0.00 0.01 0.00 59 1016.8
20260905225403 81 38 1.7 3.5 0.00 0.01 0.00 59 1016.7
20260905225305 81 39 1.7 1.7 0.00 0.01 0.00 60 1016.9
20260905225203 81 37 1.7 1.7 0.00 0.01 0.00 60 1016.9
20260905225103 81 36 1.7 1.7 0.00 0.01 0.00 60 1016.9
20260905225003 81 38 1.7 1.7 0.00 0.01 0.00 61 1016.6
20260905224903 81 38 1.7 3.5 0.00 0.01 0.00 61 1017.0
20260905224803 81 37 1.7 3.5 0.00 0.01 0.00 61 1016.8
20260905224703 81 37 1.7 3.5 0.00 0.01 0.00 61 1017.1
20260905224603 81 37 1.7 3.5 0.00 0.01 0.00 62 1016.8
20260905224503 81 35 1.7 3.5 0.00 0.01 0.00 62 1016.9
20260905224403 81 35 1.7 3.5 0.00 0.01 0.00 62 1016.9
20260905224303 81 37 1.7 3.5 0.00 0.01 0.00 62 1016.8
20260905224203 81 39 1.7 3.5 0.00 0.01 0.00 61 1016.7
20260905224003 81 44 1.7 3.5 0.00 0.01 0.00 60 1016.9
20260905223903 81 42 1.7 1.7 0.00 0.01 0.00 61 1017.0
20260905223803 81 45 1.7 1.7 0.00 0.01 0.00 62 1016.9
20260905223703 81 45 1.7 1.7 0.00 0.01 0.00 62 1017.0
20260905223603 81 45 1.7 1.7 0.00 0.01 0.00 62 1016.8
20260905223503 81 46 0.9 1.7 0.00 0.01 0.00 62 1016.7
20260905223403 81 49 0.9 1.7 0.00 0.01 0.00 62 1016.7
20260905223303 81 50 0.9 1.7 0.00 0.01 0.00 62 1016.8
20260905223203 81 51 0.9 1.7 0.00 0.01 0.00 62 1016.7
20260905223103 81 41 0.9 1.7 0.00 0.01 0.00 61 1016.8
20260905223003 81 42 0.9 1.7 0.00 0.01 0.00 61 1016.9
20260905222903 81 43 0.9 1.7 0.00 0.01 0.00 60 1016.9
20260905222803 81 44 0.9 1.7 0.00 0.01 0.00 60 1016.9
20260905222703 81 44 0.9 1.7 0.00 0.01 0.00 61 1016.7
20260905222603 81 44 0.9 1.7 0.00 0.01 0.00 61 1016.8
20260905222503 81 48 0.9 1.7 0.00 0.01 0.00 61 1016.8
20260905222403 81 53 0.9 1.7 0.00 0.01 0.00 61 1016.9
20260905222306 81 53 1.7 1.7 0.00 0.01 0.00 61 1016.9
20260905222203 81 52 1.7 1.7 0.00 0.01 0.00 61 1017.0
20260905222103 81 52 1.7 1.7 0.00 0.01 0.00 62 1017.0
20260905222003 81 52 1.7 1.7 0.00 0.01 0.00 62 1016.6
20260905221903 81 56 1.7 1.7 0.00 0.01 0.00 62 1017.0
20260905221803 81 60 1.7 1.7 0.00 0.01 0.00 63 1016.8
20260905221703 81 60 1.7 1.7 0.00 0.01 0.00 63 1016.9
20260905221603 81 61 1.7 1.7 0.00 0.01 0.00 63 1017.0
20260905221503 80 50 1.7 1.7 0.00 0.01 0.00 64 1016.8
20260905221403 80 45 1.7 1.7 0.00 0.01 0.00 64 1016.8
20260905221303 80 42 1.7 1.7 0.00 0.01 0.00 64 1017.0
20260905221203 80 41 1.7 1.7 0.00 0.01 0.00 65 1016.7
20260905221103 80 39 1.7 1.7 0.00 0.01 0.00 65 1017.0
20260905221003 80 38 1.7 1.7 0.00 0.01 0.00 65 1017.0
20260905220903 80 35 1.7 1.7 0.00 0.01 0.00 66 1016.9
20260905220803 80 29 1.7 1.7 0.00 0.01 0.00 66 1016.7
20260905220703 80 28 0.9 1.7 0.00 0.01 0.00 66 1017.0
20260905220603 80 28 0.9 1.7 0.00 0.01 0.00 66 1017.0
20260905220503 80 32 0.9 1.7 0.00 0.02 0.00 66 1017.0
20260905220403 80 33 0.9 1.7 0.00 0.05 0.00 67 1016.8
20260905220303 80 29 0.9 1.7 0.00 0.06 0.00 67 1016.7
20260905220203 80 26 0.9 1.7 0.00 0.07 0.00 67 1016.9
20260905220103 80 29 0.9 1.7 0.00 0.08 0.00 68 1016.8
20260905220046 80 27 0.9 1.7 0.00 0.08 0.00 68 1016.8
20260905215903 80 33 0.9 1.7 0.00 0.11 0.08 69 1016.7
20260905215803 80 39 0.9 1.7 0.00 0.12 0.08 70 1016.9
20260905215703 80 45 0.9 1.7 0.00 0.13 0.08 70 1016.9
20260905215603 80 41 0.9 1.7 0.00 0.14 0.08 70 1017.1
20260905215503 80 42 0.9 1.7 0.00 0.15 0.08 70 1016.8
20260905215403 80 40 0.9 1.7 0.00 0.17 0.08 70 1016.9
20260905215306 80 38 1.7 1.7 0.00 0.18 0.08 70 1017.0
20260905215203 80 39 1.7 1.7 0.00 0.19 0.08 71 1016.9
20260905215103 79 39 1.7 1.7 0.00 0.21 0.08 71 1016.7
20260905215004 79 39 1.7 1.7 0.00 0.21 0.08 72 1017.0
20260905214903 79 41 1.7 1.7 0.00 0.22 0.08 73 1016.9
20260905214804 79 38 1.7 1.7 0.00 0.24 0.08 73 1017.0
20260905214704 79 35 1.7 3.5 0.00 0.26 0.08 73 1016.8
20260905214603 79 36 1.7 3.5 0.00 0.27 0.08 73 1016.9
20260905214503 79 35 1.7 3.5 0.00 0.30 0.08 73 1016.9
20260905214403 79 33 1.7 3.5 0.00 0.30 0.08 73 1016.8
20260905214303 79 34 1.7 3.5 0.00 0.31 0.08 73 1016.8
20260905214203 79 33 1.7 3.5 0.00 0.32 0.08 73 1016.9
20260905214103 79 32 1.7 3.5 0.00 0.33 0.08 74 1016.8
20260905214003 79 32 1.7 3.5 0.00 0.34 0.08 73 1016.8
20260905213903 79 30 1.7 3.5 0.00 0.35 0.08 73 1017.0
20260905213803 79 32 1.7 3.5 0.00 0.37 0.08 73 1017.0
20260905213703 79 27 1.7 3.5 0.00 0.38 0.08 73 1016.8
20260905213603 79 26 1.7 3.5 0.00 0.39 0.08 73 1016.8
20260905213503 79 24 1.7 1.7 0.00 0.41 0.08 73 1016.7
20260905213403 79 26 1.7 1.7 0.00 0.43 0.08 73 1016.9
20260905213303 79 25 1.7 1.7 0.00 0.43 0.08 73 1016.8
20260905213203 79 25 1.7 1.7 0.00 0.44 0.08 73 1016.9
20260905213103 79 25 1.7 1.7 0.00 0.46 0.08 73 1016.9
20260905213005 79 25 1.7 1.7 0.00 0.47 0.08 73 1017.0
20260905212903 79 27 1.7 1.7 0.00 0.47 0.08 73 1017.1
20260905212803 79 27 1.7 1.7 0.00 0.48 0.08 73 1016.9
20260905212703 79 30 1.7 1.7 0.00 0.51 0.08 73 1016.8
20260905212603 79 30 1.7 1.7 0.00 0.52 0.08 73 1017.0
20260905212503 79 31 1.7 1.7 0.00 0.53 0.08 72 1016.9
20260905212403 79 33 1.7 1.7 0.00 0.54 0.08 72 1016.9
20260905212306 79 35 0.9 1.7 0.00 0.56 0.08 72 1016.9
20260905212203 79 33 0.9 1.7 0.00 0.58 0.08 72 1017.1
20260905212103 79 39 0.9 1.7 0.00 0.58 0.08 72 1017.0
20260905212003 80 36 0.9 1.7 0.00 0.59 0.08 72 1016.9
20260905211903 80 30 0.9 1.7 0.00 0.60 0.08 71 1017.0
20260905211803 80 22 0.0 1.7 0.00 0.61 0.08 70 1016.8
20260905211703 80 28 0.0 1.7 0.00 0.63 0.08 70 1016.8
20260905211603 80 33 0.0 1.7 0.00 0.64 0.08 69 1016.9
20260905211503 80 33 0.0 1.7 0.00 0.66 0.08 68 1017.0
20260905211403 80 33 0.0 1.7 0.00 0.67 0.08 68 1016.9
20260905211303 80 27 0.9 1.7 0.00 0.67 0.08 68 1016.9
20260905211203 80 28 0.9 1.7 0.00 0.69 0.08 68 1017.0
20260905211103 80 32 0.9 1.7 0.00 0.71 0.08 70 1017.0
20260905211003 80 35 0.9 3.5 0.00 0.72 0.08 70 1017.0
20260905210903 80 37 0.9 3.5 0.00 0.73 0.08 70 1016.8
20260905210803 80 40 0.9 3.5 0.00 0.73 0.08 70 1016.9
20260905210703 80 38 1.7 3.5 0.00 0.76 0.08 71 1016.8
20260905210603 80 37 1.7 3.5 0.00 0.77 0.08 71 1017.0
20260905210503 80 36 1.7 3.5 0.00 0.79 0.08 71 1016.8
20260905210403 80 36 1.7 3.5 0.00 0.79 0.08 72 1016.7
20260905210303 80 36 1.7 3.5 0.00 0.80 0.08 72 1016.9
20260905210203 80 36 1.7 3.5 0.00 0.81 0.08 72 1016.9
20260905210103 80 36 1.7 3.5 0.00 0.83 0.08 72 1016.9
20260905210003 80 36 1.7 3.5 0.00 0.84 0.08 72 1017.0
20260905205903 80 36 1.7 3.5 0.00 0.86 0.08 72 1016.8
20260905205803 80 35 1.7 3.5 0.00 0.86 0.08 72 1016.9
20260905205703 80 36 1.7 3.5 0.00 0.91 0.08 72 1017.0
20260905205603 80 35 1.7 3.5 0.00 0.91 0.08 72 1016.8
20260905205503 80 37 1.7 3.5 0.00 0.91 0.08 72 1016.9
20260905205403 80 37 1.7 3.5 0.00 0.92 0.08 71 1016.9
20260905205306 80 40 1.7 3.5 0.00 0.93 0.08 71 1016.8
20260905205203 80 39 1.7 1.7 0.00 0.93 0.08 70 1016.9
20260905205103 80 38 1.7 1.7 0.00 0.96 0.08 70 1017.1
20260905205003 80 38 1.7 1.7 0.00 0.97 0.08 71 1017.0
20260905204903 80 38 1.7 1.7 0.00 0.98 0.08 71 1016.7
20260905204803 80 36 1.7 1.7 0.00 0.99 0.08 71 1016.9
20260905204703 80 36 1.7 1.7 0.00 1.00 0.08 70 1016.7
20260905204603 80 36 1.7 1.7 0.00 1.03 0.08 70 1016.9
20260905204503 80 33 1.7 1.7 0.00 1.03 0.08 70 1016.8
20260905204403 80 31 1.7 1.7 0.00 1.04 0.08 69 1016.8
20260905204303 80 31 1.7 1.7 0.00 1.06 0.08 68 1016.8
20260905204203 80 32 1.7 1.7 0.00 1.06 0.08 68 1016.8
20260905204103 80 31 1.7 1.7 0.00 1.09 0.08 68 1016.8
20260905204003 80 31 1.7 1.7 0.00 1.09 0.08 69 1016.5
20260905203903 80 30 1.7 1.7 0.00 1.12 0.08 69 1016.8
20260905203803 80 35 1.7 1.7 0.00 1.12 0.08 68 1016.9
20260905203703 80 37 1.7 1.7 0.00 1.13 0.08 68 1016.9
20260905203604 81 40 1.7 1.7 0.00 1.16 0.08 67 1016.8
20260905203503 81 42 1.7 1.7 0.00 1.16 0.08 67 1016.9
20260905203403 81 44 1.7 1.7 0.00 1.19 0.08 66 1016.8
20260905203303 81 41 1.7 1.7 0.00 1.19 0.08 64 1017.0
20260905203203 81 41 1.7 1.7 0.00 1.19 0.08 64 1016.9
20260905203103 81 43 1.7 1.7 0.00 1.20 0.08 64 1016.9
20260905203003 81 44 0.9 1.7 0.00 1.22 0.08 64 1016.8
20260905202903 81 44 0.9 1.7 0.00 1.24 0.08 64 1016.8
20260905202804 81 38 0.9 1.7 0.00 1.24 0.08 64 1016.7
20260905202703 81 33 0.9 1.7 0.00 1.25 0.08 63 1016.9
20260905202604 81 31 0.9 1.7 0.00 1.28 0.08 63 1016.8
20260905202503 81 26 0.0 1.7 0.00 1.28 0.08 63 1016.9
20260905202403 82 22 0.0 1.7 0.00 1.30 0.08 61 1016.8
20260905202306 82 22 0.0 1.7 0.00 1.32 0.08 61 1016.9
20260905202203 82 0 0.0 0.0 0.00 1.32 0.08 61 1016.9
20260905202103 82 0 0.0 0.0 0.00 1.33 0.08 61 1017.1
20260905202003 82 0 0.0 0.0 0.00 1.33 0.08 61 1016.9
20260905201903 82 0 0.0 0.0 0.00 1.38 0.08 61 1016.8
20260905201803 81 0 0.0 0.0 0.00 1.38 0.08 61 1016.9
20260905201703 81 0 0.0 0.0 0.00 1.38 0.08 61 1016.9
20260905201603 81 0 0.0 0.0 0.00 1.38 0.08 61 1017.1
20260905201503 81 0 0.0 0.0 0.00 1.41 0.08 61 1017.0
20260905201403 81 0 0.0 0.0 0.00 1.42 0.08 61 1017.2
20260905201303 81 0 0.0 0.0 0.00 1.43 0.08 61 1017.0
20260905201203 81 0 0.0 0.0 0.00 1.44 0.08 61 1016.9
20260905201103 81 0 0.0 0.0 0.00 1.45 0.08 61 1017.0
20260905201003 81 0 0.0 0.0 0.00 1.46 0.08 61 1016.9
20260905200903 81 0 0.0 0.0 0.00 1.48 0.08 61 1016.9
20260905200803 81 0 0.0 0.0 0.00 1.49 0.08 61 1016.8
20260905200703 81 0 0.0 0.0 0.00 1.51 0.08 61 1017.0
20260905200603 81 0 0.0 0.0 0.00 1.52 0.08 61 1017.0
20260905200503 81 0 0.0 0.0 0.00 1.52 0.08 61 1016.9
20260905200403 81 0 0.0 0.0 0.00 1.54 0.08 61 1016.9
20260905200303 81 0 0.0 0.0 0.00 1.56 0.08 61 1016.7
20260905200203 81 0 0.0 0.0 0.00 1.57 0.08 61 1017.1
20260905200103 81 0 0.0 0.0 0.00 1.61 0.08 61 1017.0
20260905200004 81 0 0.0 0.0 0.00 1.61 0.08 61 1017.1
20260905195903 81 0 0.0 0.0 0.00 1.61 0.08 61 1017.1
20260905195803 81 0 0.0 0.0 0.00 1.62 0.08 61 1016.8
20260905195703 81 0 0.0 0.0 0.00 1.63 0.08 61 1016.8
20260905195603 81 0 0.0 0.0 0.00 1.64 0.08 61 1017.0
20260905195503 81 0 0.0 0.0 0.00 1.65 0.08 61 1016.9
20260905195403 81 0 0.0 0.0 0.00 1.67 0.08 61 1017.0
20260905195306 81 0 0.0 0.0 0.00 1.68 0.08 61 1017.1
20260905195203 81 0 0.0 0.0 0.00 1.69 0.08 61 1016.9
20260905195103 81 0 0.0 0.0 0.00 1.71 0.08 61 1016.9
20260905195004 81 0 0.0 0.0 0.00 1.72 0.08 61 1017.1
20260905194903 81 0 0.0 0.0 0.00 1.72 0.08 61 1017.2
20260905194803 81 0 0.0 0.0 0.00 1.74 0.08 61 1017.1
20260905194703 82 0 0.0 0.0 0.00 1.76 0.08 61 1016.9
20260905194603 82 0 0.0 0.0 0.00 1.77 0.08 60 1017.1
20260905194503 82 0 0.0 0.0 0.00 1.78 0.08 60 1017.1
20260905194403 82 0 0.0 0.0 0.00 1.78 0.08 60 1017.1
20260905194303 82 0 0.0 0.0 0.00 1.81 0.08 61 1017.2
20260905194203 82 0 0.0 0.0 0.00 1.82 0.08 61 1017.2
20260905194103 82 0 0.0 0.0 0.00 1.83 0.08 61 1017.0
20260905194003 82 0 0.0 0.0 0.00 1.84 0.08 61 1017.2
20260905193903 81 0 0.0 0.0 0.00 1.85 0.08 62 1017.2
20260905193803 81 0 0.0 0.0 0.00 1.87 0.08 62 1017.1
20260905193703 82 0 0.0 0.0 0.00 1.88 0.08 62 1017.1
20260905193603 82 0 0.0 0.0 0.00 1.89 0.08 62 1017.1
20260905193503 81 0 0.0 0.0 0.00 1.91 0.08 65 1017.1
20260905193403 81 0 0.0 0.0 0.00 1.91 0.08 65 1017.1
20260905193303 81 0 0.0 0.0 0.00 1.93 0.08 65 1017.1
20260905193203 81 0 0.0 0.0 0.00 1.94 0.08 65 1017.1
20260905193103 81 0 0.0 0.0 0.00 1.96 0.08 65 1017.0
20260905193003 81 0 0.0 0.0 0.00 1.97 0.08 65 1017.0
20260905192903 81 0 0.0 0.0 0.00 1.97 0.08 65 1017.0
20260905192803 81 0 0.0 0.0 0.00 1.98 0.08 65 1017.3
20260905192703 81 0 0.0 0.0 0.00 2.01 0.08 64 1016.9
20260905192603 81 0 0.0 0.0 0.00 2.03 0.08 65 1017.0
20260905192503 81 0 0.0 0.0 0.00 2.03 0.08 65 1016.8
20260905192403 81 0 0.0 0.0 0.00 2.04 0.08 64 1016.8
20260905192306 81 0 0.0 0.0 0.00 2.07 0.08 64 1017.0
20260905192203 81 0 0.0 0.0 0.00 2.07 0.08 64 1016.7
20260905192103 81 0 0.0 0.0 0.00 2.07 0.08 64 1017.0
20260905192003 81 0 0.0 0.0 0.00 2.07 0.08 64 1016.8
20260905191903 80 0 0.0 0.0 0.00 2.07 0.08 65 1016.9
20260905191803 80 0 0.0 0.0 0.00 2.07 0.08 64 1017.0
20260905191703 80 0 0.0 0.0 0.00 2.07 0.08 64 1016.9
20260905191603 80 0 0.0 0.0 0.00 2.07 0.08 64 1016.6
20260905191504 81 0 0.0 0.0 0.00 2.07 0.08 63 1016.7
20260905191404 81 0 0.0 0.0 0.00 2.07 0.08 63 1016.8
20260905191303 81 0 0.0 0.0 0.00 2.07 0.08 63 1016.6
20260905191203 81 0 0.0 0.0 0.00 2.07 0.08 63 1017.0
20260905191103 81 0 0.0 0.0 0.00 2.07 0.08 63 1016.6
20260905191003 81 0 0.0 0.0 0.00 2.07 0.08 64 1016.8
20260905190903 81 0 0.0 0.0 0.00 2.07 0.08 64 1016.8
20260905190803 81 0 0.0 0.0 0.00 2.07 0.08 64 1016.7
20260905190703 81 0 0.0 0.0 0.00 2.07 0.08 64 1016.8
20260905190603 81 0 0.0 0.0 0.00 2.07 0.08 64 1016.8
20260905190503 81 0 0.0 0.0 0.00 2.07 0.08 64 1016.7
20260905190404 81 0 0.0 0.0 0.00 2.07 0.08 64 1016.8
20260905190303 81 0 0.0 0.0 0.00 2.07 0.08 64 1016.8
20260905190203 81 0 0.0 0.0 0.00 2.07 0.08 64 1016.8
20260905190103 81 0 0.0 0.0 0.00 2.07 0.08 64 1016.8
20260905190004 81 0 0.0 0.0 0.00 2.07 0.08 64 1016.7
20260905185903 81 0 0.0 0.0 0.00 2.07 0.08 65 1016.8
20260905185803 81 0 0.0 0.0 0.00 2.07 0.08 64 1016.7
20260905185703 81 0 0.0 0.0 0.00 2.07 0.08 64 1016.7
20260905185603 81 0 0.0 0.0 0.00 2.07 0.08 64 1016.7
20260905185503 81 0 0.0 0.0 0.00 2.07 0.08 64 1016.6
20260905185403 81 0 0.0 0.0 0.00 2.07 0.08 64 1016.6
20260905185305 81 0 0.0 0.0 0.00 2.07 0.08 63 1016.6
20260905185203 81 0 0.0 0.0 0.00 2.07 0.08 63 1016.8
20260905185103 81 0 0.0 0.0 0.00 2.07 0.08 64 1016.7
20260905185003 81 0 0.0 0.0 0.00 2.07 0.08 64 1016.6
20260905184903 81 0 0.0 0.0 0.00 2.07 0.08 64 1016.7
20260905184803 81 0 0.0 0.0 0.00 2.07 0.08 64 1016.5
20260905184703 81 0 0.0 0.0 0.00 2.07 0.08 65 1016.6
20260905184603 81 0 0.0 0.0 0.00 2.07 0.08 65 1016.5
20260905184503 81 0 0.0 0.0 0.00 2.07 0.08 65 1016.6
20260905184403 81 0 0.0 0.0 0.00 2.07 0.08 65 1016.7
20260905184303 81 0 0.0 0.0 0.00 2.07 0.08 65 1016.6
20260905184203 81 0 0.0 0.0 0.00 2.07 0.08 65 1016.7
20260905184103 81 0 0.0 0.0 0.00 2.07 0.08 65 1016.5
20260905184003 81 0 0.0 0.0 0.00 2.07 0.08 65 1016.5
20260905183903 81 0 0.0 0.0 0.00 2.07 0.08 64 1016.4
20260905183803 81 0 0.0 0.0 0.00 2.07 0.08 64 1016.1
20260905183603 81 0 0.0 0.0 0.00 2.07 0.08 64 1016.3
20260905183503 81 0 0.0 0.0 0.00 2.07 0.08 64 1016.6
20260905183403 81 0 0.0 0.0 0.00 2.07 0.08 64 1016.1
20260905183303 81 0 0.0 0.0 0.00 2.07 0.08 64 1016.4
20260905183203 81 0 0.0 0.0 0.00 2.07 0.08 64 1016.5
20260905183103 81 0 0.0 0.0 0.00 2.07 0.08 64 1016.5
20260905183003 81 0 0.0 0.0 0.00 2.07 0.08 64 1016.4
20260905182903 81 0 0.0 0.0 0.00 2.07 0.08 64 1016.4
20260905182803 81 0 0.0 0.0 0.00 2.07 0.08 63 1016.3
20260905182703 81 0 0.0 0.0 0.00 2.07 0.08 63 1016.4
20260905182603 81 0 0.0 0.0 0.00 2.07 0.08 64 1016.3
20260905182503 81 0 0.0 0.0 0.00 2.07 0.08 64 1016.3
20260905182403 81 0 0.0 0.0 0.00 2.07 0.08 64 1016.4
20260905182305 81 0 0.0 0.0 0.00 2.07 0.08 64 1016.4
20260905182103 81 0 0.0 0.0 0.00 2.07 0.08 63 1016.4
20260905182003 81 0 0.0 0.0 0.00 2.07 0.08 63 1016.5
20260905181903 81 0 0.0 0.0 0.00 2.07 0.08 63 1016.3
20260905181803 81 0 0.0 0.0 0.00 2.07 0.08 63 1016.4
20260905181703 81 0 0.0 0.0 0.00 2.07 0.08 63 1016.3
20260905181603 81 0 0.0 0.0 0.00 2.07 0.08 63 1016.3
20260905181503 81 0 0.0 0.0 0.00 2.07 0.08 62 1016.1
20260905181403 81 0 0.0 0.0 0.00 2.07 0.08 62 1016.5
20260905181303 81 0 0.0 0.0 0.00 2.07 0.08 62 1016.4
20260905181203 81 0 0.0 0.0 0.00 2.07 0.08 62 1016.4
20260905181103 81 0 0.0 0.0 0.00 2.07 0.08 62 1016.3
20260905181003 81 0 0.0 0.0 0.00 2.07 0.08 62 1016.3
20260905180903 81 0 0.0 0.0 0.00 2.07 0.08 62 1016.4
20260905180803 81 0 0.0 0.0 0.00 2.07 0.08 62 1016.3
20260905180703 81 0 0.0 0.0 0.00 2.07 0.08 62 1016.3
20260905180603 81 0 0.0 0.0 0.00 2.07 0.08 62 1016.3
20260905180503 81 0 0.0 0.0 0.00 2.07 0.08 62 1016.5
20260905180403 81 0 0.0 0.0 0.00 2.07 0.08 62 1016.3
20260905180303 82 0 0.0 0.0 0.00 2.07 0.08 62 1016.5
20260905180203 82 0 0.0 0.0 0.00 2.07 0.08 62 1016.5
20260905180103 81 0 0.0 0.0 0.00 2.07 0.08 62 1016.5
20260905180003 81 0 0.0 0.0 0.00 2.07 0.08 62 1016.3
20260905175903 81 0 0.0 0.0 0.00 2.07 0.08 62 1016.3
20260905175803 82 0 0.0 0.0 0.00 2.07 0.08 62 1016.2
20260905175703 81 0 0.0 0.0 0.00 2.07 0.08 62 1016.3
20260905175603 81 0 0.0 0.0 0.00 2.07 0.08 62 1016.3
20260905175504 81 0 0.0 0.0 0.00 2.07 0.08 62 1016.3
20260905175404 81 0 0.0 0.0 0.00 2.07 0.08 62 1016.4
20260905175306 81 0 0.0 0.0 0.00 2.07 0.08 62 1016.2
20260905175204 81 0 0.0 0.0 0.00 2.07 0.08 62 1016.1
20260905175103 81 0 0.0 0.0 0.00 2.07 0.08 62 1016.4
20260905175003 82 0 0.0 0.0 0.00 2.07 0.08 62 1016.3
20260905174904 82 0 0.0 0.0 0.00 2.07 0.08 62 1016.1
20260905174813 82 0 0.0 0.0 0.00 2.07 0.08 62 1016.3
20260905174703 82 0 0.0 0.0 0.00 2.07 0.08 61 1016.4
20260905174603 82 0 0.0 0.0 0.00 2.07 0.08 61 1016.4
20260905174503 82 0 0.0 0.0 0.00 2.07 0.08 61 1016.5
20260905174403 82 0 0.0 0.0 0.00 2.07 0.08 61 1016.4
20260905174303 82 0 0.0 0.0 0.00 2.07 0.08 61 1016.4
20260905174203 82 0 0.0 0.0 0.00 2.07 0.08 61 1016.4
20260905174103 82 0 0.0 0.0 0.00 2.07 0.08 61 1016.2
20260905174003 82 0 0.0 0.0 0.00 2.07 0.08 61 1016.3
20260905173903 82 0 0.0 0.0 0.00 2.07 0.08 61 1016.4
20260905173803 82 0 0.0 0.0 0.00 2.07 0.08 61 1016.5
20260905173713 82 0 0.0 0.0 0.00 2.07 0.08 61 1016.4
20260905173603 82 0 0.0 0.0 0.00 2.07 0.08 61 1016.6
20260905173503 82 0 0.0 0.0 0.00 2.07 0.08 61 1016.5
20260905173403 82 0 0.0 0.0 0.00 2.07 0.08 61 1016.2
20260905173303 82 0 0.0 0.0 0.00 2.07 0.08 60 1016.2
20260905173203 82 0 0.0 0.0 0.00 2.07 0.08 60 1016.5
20260905173103 82 0 0.0 0.0 0.00 2.07 0.08 60 1016.3
20260905173003 82 0 0.0 0.0 0.00 2.07 0.08 60 1016.2
20260905172903 82 0 0.0 0.0 0.00 2.07 0.08 60 1016.4
20260905172803 82 0 0.0 0.0 0.00 2.07 0.08 60 1016.4
20260905172703 83 0 0.0 0.0 0.00 2.07 0.08 60 1016.4
20260905172603 83 0 0.0 0.0 0.00 2.07 0.08 60 1016.2
20260905172503 83 0 0.0 0.0 0.00 2.07 0.08 59 1016.3
20260905172403 83 0 0.0 0.0 0.00 2.07 0.08 59 1016.4
20260905172305 83 0 0.0 0.0 0.00 2.07 0.08 59 1016.3
20260905172203 83 270 0.0 1.7 0.00 2.07 0.08 59 1016.2
20260905172103 83 258 0.0 1.7 0.00 2.07 0.08 59 1016.3
20260905172003 83 258 0.0 1.7 0.00 2.07 0.08 59 1016.4
20260905171903 83 258 0.0 1.7 0.00 2.07 0.08 59 1016.2
20260905171803 83 258 0.0 1.7 0.00 2.07 0.08 59 1016.3
20260905171703 83 258 0.0 1.7 0.00 2.07 0.08 59 1016.4
20260905171603 83 258 0.0 1.7 0.00 2.07 0.08 59 1016.4
20260905171503 83 258 0.0 1.7 0.00 2.07 0.08 58 1016.5
20260905171403 83 258 0.0 1.7 0.00 2.07 0.08 58 1016.2
20260905171303 83 258 0.0 1.7 0.00 2.07 0.08 58 1016.5
20260905171203 83 253 0.0 1.7 0.00 2.07 0.08 58 1016.5
20260905171103 83 0 0.0 0.0 0.00 2.07 0.08 58 1016.3
20260905171003 84 0 0.0 0.0 0.00 2.07 0.08 57 1016.3
20260905170903 84 0 0.0 0.0 0.00 2.07 0.08 57 1016.3
20260905170803 84 0 0.0 0.0 0.00 2.07 0.08 57 1016.3
20260905170703 85 0 0.0 0.0 0.00 2.07 0.08 56 1016.5
20260905170603 85 0 0.0 0.0 0.00 2.07 0.08 55 1016.4
20260905170503 85 0 0.0 0.0 0.00 2.07 0.08 56 1016.3
20260905170403 85 0 0.0 0.0 0.00 2.07 0.08 56 1016.4
20260905170303 85 0 0.0 0.0 0.00 2.07 0.08 56 1016.3
20260905170203 85 0 0.0 0.0 0.00 2.07 0.08 56 1016.3
20260905170003 85 0 0.0 0.0 0.00 2.07 0.08 56 1016.5
20260905165903 85 0 0.0 0.0 0.00 2.07 0.08 56 1016.3
20260905165803 85 0 0.0 0.0 0.00 2.07 0.08 56 1016.5
20260905165703 85 0 0.0 0.0 0.00 2.07 0.08 56 1016.4
20260905165603 85 0 0.0 0.0 0.00 2.07 0.08 56 1016.3
20260905165503 85 0 0.0 0.0 0.00 2.07 0.08 56 1016.2
20260905165403 85 0 0.0 0.0 0.00 2.07 0.08 56 1016.2
20260905165306 85 0 0.0 0.0 0.00 2.07 0.08 56 1016.4
20260905165203 85 0 0.0 0.0 0.00 2.07 0.08 55 1016.4
20260905165103 85 0 0.0 0.0 0.00 2.07 0.08 55 1016.1
20260905165003 85 0 0.0 0.0 0.00 2.07 0.08 55 1016.5
20260905164903 85 0 0.0 0.0 0.00 2.07 0.08 55 1016.1
20260905164803 85 0 0.0 0.0 0.00 2.07 0.08 54 1016.2
20260905164703 85 0 0.0 0.0 0.00 2.07 0.08 54 1016.3
20260905164603 85 0 0.0 0.0 0.00 2.07 0.08 54 1016.3
20260905164503 85 0 0.0 0.0 0.00 2.07 0.08 55 1016.2
20260905164403 85 247 0.0 1.7 0.00 2.07 0.08 55 1016.5
20260905164303 85 247 0.0 1.7 0.00 2.07 0.08 56 1016.1
20260905164203 85 247 0.0 1.7 0.00 2.07 0.08 56 1016.3
20260905164103 85 247 0.0 1.7 0.00 2.07 0.08 55 1016.5
20260905164004 85 247 0.0 1.7 0.00 2.07 0.08 55 1016.3
20260905163903 85 249 0.9 1.7 0.00 2.07 0.08 55 1016.2
20260905163803 85 254 0.9 1.7 0.00 2.07 0.08 55 1016.2
20260905163704 85 255 0.9 1.7 0.00 2.07 0.08 55 1016.1
20260905163603 85 251 0.9 1.7 0.00 2.07 0.08 55 1016.4
20260905163504 85 245 0.9 1.7 0.00 2.07 0.08 55 1016.3
20260905163403 85 246 0.9 1.7 0.00 2.07 0.08 55 1016.3
20260905163303 85 245 0.9 1.7 0.00 2.07 0.08 55 1016.3
20260905163203 85 245 0.9 1.7 0.00 2.07 0.08 56 1016.3
20260905163103 85 237 0.9 1.7 0.00 2.07 0.08 57 1016.5
20260905163004 85 234 0.9 1.7 0.00 2.07 0.08 57 1016.3
20260905162903 85 234 0.9 1.7 0.00 2.07 0.08 57 1016.4
20260905162803 85 225 0.9 1.7 0.00 2.07 0.08 57 1016.4
20260905162703 85 225 0.9 1.7 0.00 2.07 0.08 58 1016.4
20260905162603 85 232 0.9 1.7 0.00 2.07 0.08 58 1016.2
20260905162503 85 245 0.9 1.7 0.00 2.07 0.08 58 1016.2
20260905162403 85 250 0.9 1.7 0.00 2.07 0.08 58 1016.3
20260905162305 85 250 0.9 1.7 0.00 2.07 0.08 60 1016.5
20260905162203 85 249 0.9 1.7 0.00 2.07 0.08 60 1016.2
20260905162103 85 251 0.9 1.7 0.00 2.07 0.08 61 1016.3
20260905162003 85 259 0.9 1.7 0.00 2.07 0.08 61 1016.3
20260905161903 85 264 0.9 1.7 0.00 2.07 0.08 61 1016.3
20260905161803 85 266 1.7 1.7 0.00 2.07 0.08 62 1016.3
20260905161703 85 267 1.7 1.7 0.00 2.07 0.08 62 1016.2
20260905161603 84 267 0.9 1.7 0.00 2.07 0.08 62 1016.2
20260905161503 84 268 0.9 1.7 0.00 2.07 0.08 63 1016.4
20260905161403 84 268 0.9 1.7 0.00 2.07 0.08 63 1016.4
20260905161303 85 276 0.9 1.7 0.00 2.07 0.08 63 1016.6
20260905161203 85 276 0.9 1.7 0.00 2.07 0.08 63 1016.2
20260905161103 85 273 0.9 1.7 0.00 2.07 0.08 64 1016.4
20260905161003 85 269 0.9 1.7 0.00 2.07 0.08 64 1016.3
20260905160903 85 265 0.9 1.7 0.00 2.07 0.08 64 1016.6
20260905160803 85 261 0.9 1.7 0.00 2.07 0.08 64 1016.3
20260905160703 85 260 0.9 1.7 0.00 2.07 0.08 65 1016.6
20260905160603 85 261 0.9 1.7 0.00 2.07 0.08 65 1016.5
20260905160503 85 264 0.9 1.7 0.00 2.07 0.08 64 1016.4
20260905160403 85 259 0.9 1.7 0.00 2.07 0.08 64 1016.4
20260905160303 85 253 0.9 1.7 0.00 2.07 0.08 64 1016.4
20260905160203 85 256 0.9 1.7 0.00 2.07 0.08 65 1016.2
20260905160004 85 267 0.9 1.7 0.00 2.07 0.08 65 1016.3
20260905155903 86 264 0.9 1.7 0.00 2.07 0.08 64 1016.3
20260905155803 86 260 1.7 1.7 0.00 2.07 0.08 64 1016.5
20260905155703 85 255 1.7 1.7 0.00 2.07 0.08 65 1016.4
20260905155604 85 255 1.7 1.7 0.00 2.07 0.08 64 1016.4
20260905155503 84 253 1.7 1.7 0.00 2.07 0.08 64 1016.2
20260905155403 85 252 1.7 1.7 0.00 2.07 0.08 64 1016.4
20260905155306 85 248 1.7 1.7 0.00 2.07 0.08 64 1016.3
20260905155203 85 247 1.7 1.7 0.00 2.07 0.08 64 1016.6
20260905155103 85 243 1.7 1.7 0.00 2.07 0.08 64 1016.2
20260905155003 85 243 1.7 1.7 0.00 2.07 0.08 63 1016.3
20260905154903 85 240 1.7 1.7 0.00 2.07 0.08 63 1016.3
20260905154803 85 245 1.7 1.7 0.00 2.07 0.08 63 1016.4
20260905154703 85 253 1.7 1.7 0.00 2.07 0.08 63 1016.5
20260905154617 85 255 1.7 1.7 0.00 2.07 0.08 63 1016.5
20260905154603 85 256 1.7 1.7 0.00 2.07 0.08 63 1016.2
20260905154503 85 254 1.7 1.7 0.00 2.07 0.08 63 1016.3
20260905154303 85 253 1.7 1.7 0.00 2.07 0.08 62 1016.4
20260905154203 85 247 1.7 1.7 0.00 2.07 0.08 63 1016.3
20260905154103 85 251 1.7 1.7 0.00 2.07 0.08 64 1016.5
20260905154003 85 251 1.7 1.7 0.00 2.07 0.08 63 1016.4
20260905153903 85 248 1.7 1.7 0.00 2.07 0.08 63 1016.4
20260905153803 85 241 1.7 1.7 0.00 2.07 0.08 64 1016.4
20260905153703 85 237 1.7 1.7 0.00 2.07 0.08 64 1016.4
20260905153603 85 231 1.7 1.7 0.00 2.07 0.08 64 1016.4
20260905153503 85 229 1.7 1.7 0.00 2.07 0.08 64 1016.4
20260905153403 85 231 1.7 1.7 0.00 2.07 0.08 64 1016.4
20260905153303 85 235 1.7 1.7 0.00 2.07 0.08 65 1016.4
20260905153203 85 242 1.7 1.7 0.00 2.07 0.08 65 1016.2
20260905153103 85 242 1.7 1.7 0.00 2.07 0.08 65 1016.4
20260905153003 85 242 1.7 1.7 0.00 2.07 0.08 65 1016.4
20260905152903 85 244 1.7 1.7 0.00 2.07 0.08 65 1016.5
20260905152803 85 248 1.7 1.7 0.00 2.07 0.08 65 1016.3
20260905152703 85 250 1.7 1.7 0.00 2.07 0.08 65 1016.4
20260905152603 85 252 1.7 1.7 0.00 2.07 0.08 66 1016.6
20260905152503 85 249 1.7 3.5 0.00 2.07 0.08 65 1016.3
20260905152403 85 250 1.7 3.5 0.00 2.07 0.08 64 1016.7
20260905152306 85 249 1.7 3.5 0.00 2.07 0.08 64 1016.6
20260905152203 85 247 1.7 3.5 0.00 2.07 0.08 63 1016.2
20260905152103 85 243 1.7 3.5 0.00 2.07 0.08 65 1016.4
20260905152004 85 241 1.7 3.5 0.00 2.07 0.08 65 1016.4
20260905151903 85 240 1.7 3.5 0.00 2.07 0.08 65 1016.4
20260905151803 85 241 1.7 3.5 0.00 2.07 0.08 66 1016.5
20260905151703 85 241 1.7 3.5 0.00 2.07 0.08 66 1016.5
20260905151603 85 242 1.7 3.5 0.00 2.07 0.08 65 1016.6
20260905151503 85 246 1.7 3.5 0.00 2.07 0.08 65 1016.4
20260905151403 86 253 1.7 1.7 0.00 2.07 0.08 63 1016.6
20260905151303 86 259 1.7 1.7 0.00 2.07 0.08 63 1016.6
20260905151203 86 261 1.7 3.5 0.00 2.07 0.08 64 1016.5
20260905151103 86 261 1.7 3.5 0.00 2.07 0.08 63 1016.3
20260905151003 85 272 1.7 3.5 0.00 2.07 0.08 64 1016.4
20260905150903 86 274 1.7 3.5 0.00 2.07 0.08 64 1016.6
20260905150803 87 274 1.7 3.5 0.00 2.07 0.08 63 1016.5
20260905150703 87 273 1.7 3.5 0.00 2.07 0.08 61 1016.6
20260905150603 87 268 1.7 3.5 0.00 2.07 0.08 60 1016.3
20260905150503 86 262 1.7 3.5 0.00 2.07 0.08 61 1016.5
20260905150403 85 255 1.7 3.5 0.00 2.07 0.08 61 1016.4
20260905150303 86 252 1.7 3.5 0.00 2.07 0.08 59 1016.5
20260905150203 86 249 1.7 3.5 0.00 2.07 0.08 59 1016.5
20260905150103 86 251 1.7 3.5 0.00 2.07 0.08 58 1016.3
20260905150004 86 243 1.7 3.5 0.00 2.07 0.08 61 1016.4
20260905145903 87 242 1.7 1.7 0.00 2.07 0.08 63 1016.4
20260905145803 87 242 1.7 1.7 0.00 2.07 0.08 63 1016.4
20260905145703 86 243 1.7 1.7 0.00 2.07 0.08 63 1016.5
20260905145603 87 241 1.7 3.5 0.00 2.07 0.08 63 1016.5
20260905145503 86 244 1.7 3.5 0.00 2.07 0.08 62 1016.4
20260905145403 86 248 1.7 3.5 0.00 2.07 0.08 60 1016.5
20260905145306 86 253 1.7 3.5 0.00 2.07 0.08 60 1016.4
20260905145203 86 253 1.7 3.5 0.00 2.07 0.08 60 1016.2
20260905145103 87 250 1.7 3.5 0.00 2.07 0.08 60 1016.3
20260905145003 86 249 1.7 3.5 0.00 2.07 0.08 60 1016.3
20260905144903 86 246 1.7 3.5 0.00 2.07 0.08 60 1016.5
20260905144803 86 249 1.7 3.5 0.00 2.07 0.08 60 1016.4
20260905144703 86 251 1.7 3.5 0.00 2.07 0.08 61 1016.5
20260905144603 86 256 1.7 1.7 0.00 2.07 0.08 60 1016.5
20260905144503 86 258 1.7 1.7 0.00 2.07 0.08 62 1016.5
20260905144403 85 253 1.7 1.7 0.00 2.07 0.08 62 1016.2
20260905144303 86 253 1.7 1.7 0.00 2.07 0.08 60 1016.4
20260905144203 87 251 1.7 1.7 0.00 2.07 0.08 59 1016.2
20260905144103 87 254 1.7 1.7 0.00 2.07 0.08 61 1016.4
20260905144003 87 255 1.7 1.7 0.00 2.07 0.08 62 1016.7
20260905143903 85 255 1.7 1.7 0.00 2.07 0.08 64 1016.4
20260905143803 85 252 1.7 1.7 0.00 2.07 0.08 66 1016.4
20260905143703 85 249 1.7 1.7 0.00 2.07 0.08 65 1016.4
20260905143603 85 251 1.7 1.7 0.00 2.07 0.08 65 1016.4
20260905143503 86 252 1.7 1.7 0.00 2.07 0.08 62 1016.6
20260905143403 86 258 1.7 1.7 0.00 2.07 0.08 61 1016.2
20260905143303 87 256 1.7 1.7 0.00 2.07 0.08 60 1016.5
20260905143203 87 255 1.7 1.7 0.00 2.07 0.08 59 1016.6
20260905143103 87 263 1.7 3.5 0.00 2.07 0.08 56 1016.6
20260905143003 87 267 1.7 3.5 0.00 2.07 0.08 55 1016.5
20260905142903 86 267 1.7 3.5 0.00 2.07 0.08 58 1016.5
20260905142803 86 267 1.7 3.5 0.00 2.07 0.08 58 1016.5
20260905142703 85 269 1.7 3.5 0.00 2.07 0.08 64 1016.4
20260905142603 86 271 1.7 3.5 0.00 2.07 0.08 65 1016.6
20260905142503 86 271 1.7 3.5 0.00 2.07 0.08 65 1016.7
20260905142403 86 264 1.7 3.5 0.00 2.07 0.08 66 1016.5
20260905142305 85 266 1.7 3.5 0.00 2.07 0.08 64 1016.7
20260905142203 85 267 1.7 3.5 0.00 2.07 0.08 66 1016.6
20260905142103 85 265 1.7 3.5 0.00 2.07 0.08 66 1016.5
20260905142003 85 258 1.7 1.7 0.00 2.07 0.08 67 1016.7
20260905141903 86 260 1.7 1.7 0.00 2.07 0.08 66 1016.5
20260905141803 86 265 1.7 3.5 0.00 2.07 0.08 67 1016.6
20260905141703 85 267 1.7 3.5 0.00 2.07 0.08 67 1016.6
20260905141603 86 268 1.7 3.5 0.00 2.07 0.08 66 1016.7
20260905141503 85 272 2.6 3.5 0.00 2.07 0.08 65 1016.5
20260905141403 85 274 2.6 3.5 0.00 2.07 0.08 66 1016.4
20260905141303 85 273 2.6 3.5 0.00 2.07 0.08 63 1016.7
20260905141203 86 280 2.6 3.5 0.00 2.07 0.08 63 1016.6
20260905141103 86 278 2.6 3.5 0.00 2.07 0.08 63 1016.7
20260905141003 86 279 2.6 3.5 0.00 2.07 0.08 65 1016.7
20260905140903 87 279 2.6 3.5 0.00 2.07 0.08 64 1016.7
20260905140803 86 278 2.6 3.5 0.00 2.07 0.08 64 1016.5
20260905140703 86 282 2.6 3.5 0.00 2.07 0.08 65 1016.6
20260905140603 86 282 2.6 3.5 0.00 2.07 0.08 64 1016.7
20260905140503 87 282 2.6 3.5 0.00 2.07 0.08 63 1016.6
20260905140403 86 276 2.6 3.5 0.00 2.07 0.08 64 1016.6
20260905140303 86 276 2.6 3.5 0.00 2.07 0.08 64 1016.5
20260905140203 85 270 2.6 3.5 0.00 2.07 0.08 67 1016.6
20260905140104 86 270 2.6 3.5 0.00 2.07 0.08 67 1016.7
20260905140004 86 270 2.6 3.5 0.00 2.07 0.08 67 1016.6
20260905135903 86 270 2.6 3.5 0.00 2.07 0.08 67 1016.8
20260905135803 86 268 2.6 3.5 0.00 2.07 0.08 67 1016.6
20260905135703 86 259 2.6 3.5 0.00 2.07 0.08 68 1016.5
20260905135603 86 252 2.6 3.5 0.00 2.07 0.08 68 1016.7
20260905135503 86 247 2.6 3.5 0.00 2.07 0.08 69 1016.7
20260905135403 86 252 2.6 3.5 0.00 2.07 0.08 69 1016.7
20260905135306 86 246 1.7 3.5 0.00 2.07 0.08 69 1016.7
20260905135203 86 241 1.7 3.5 0.00 2.07 0.08 68 1016.7
20260905135103 87 239 1.7 3.5 0.00 2.07 0.08 68 1016.7
20260905135003 88 237 1.7 3.5 0.00 2.07 0.08 65 1016.7
20260905134903 87 234 1.7 3.5 0.00 2.07 0.08 64 1016.6
20260905134803 87 233 1.7 3.5 0.00 2.07 0.08 64 1016.7
20260905134703 88 237 1.7 3.5 0.00 2.07 0.08 63 1016.5
20260905134603 87 238 1.7 3.5 0.00 2.07 0.08 63 1016.7
20260905134503 87 240 1.7 3.5 0.00 2.07 0.08 63 1016.7
20260905134403 88 237 1.7 3.5 0.00 2.07 0.08 62 1016.5
20260905134303 87 239 1.7 3.5 0.00 2.07 0.08 62 1016.5
20260905134203 87 238 1.7 3.5 0.00 2.07 0.08 62 1016.5
20260905134103 87 239 1.7 3.5 0.00 2.07 0.08 63 1016.6
20260905134003 87 240 2.6 3.5 0.00 2.07 0.08 62 1016.5
20260905133903 87 241 2.6 3.5 0.00 2.07 0.08 62 1016.6
20260905133803 86 241 2.6 3.5 0.00 2.07 0.08 63 1016.6
20260905133703 86 239 2.6 5.2 0.00 2.07 0.08 62 1016.7
20260905133603 87 237 2.6 5.2 0.00 2.07 0.08 62 1016.7
20260905133503 87 233 2.6 5.2 0.00 2.07 0.08 62 1016.6
20260905133403 87 234 2.6 5.2 0.00 2.07 0.08 62 1016.8
20260905133303 87 234 2.6 5.2 0.00 2.07 0.08 62 1016.9
20260905133203 87 235 2.6 5.2 0.00 2.07 0.08 61 1016.6
20260905133103 87 236 2.6 5.2 0.00 2.07 0.08 63 1016.7
20260905133003 87 235 2.6 5.2 0.00 2.07 0.08 63 1016.6
20260905132903 87 231 2.6 5.2 0.00 2.07 0.08 60 1016.8
20260905132803 87 229 2.6 5.2 0.00 2.07 0.08 60 1016.9
20260905132703 87 230 2.6 3.5 0.00 2.07 0.08 60 1016.7
20260905132603 87 226 2.6 3.5 0.00 2.07 0.08 60 1016.7
20260905132503 87 226 2.6 3.5 0.00 2.07 0.08 61 1016.9
20260905132403 87 225 1.7 3.5 0.00 2.07 0.08 60 1016.8
20260905132305 87 225 1.7 3.5 0.00 2.07 0.08 61 1016.9
20260905132203 88 226 1.7 3.5 0.00 2.07 0.08 60 1016.8
20260905132103 88 224 1.7 3.5 0.00 2.07 0.08 59 1016.7
20260905132003 88 222 2.6 3.5 0.00 2.07 0.08 58 1016.9
20260905131903 88 221 1.7 3.5 0.00 2.07 0.08 59 1017.0
20260905131803 87 223 1.7 3.5 0.00 2.07 0.08 58 1016.8
20260905131703 88 216 1.7 3.5 0.00 2.07 0.08 57 1016.8
20260905131603 88 225 1.7 5.2 0.00 2.07 0.08 56 1016.7
20260905131503 88 230 1.7 5.2 0.00 2.07 0.08 60 1016.9
20260905131403 87 229 1.7 5.2 0.00 2.07 0.08 61 1016.6
20260905131303 87 232 1.7 5.2 0.00 2.07 0.08 60 1016.8
20260905131203 87 230 1.7 5.2 0.00 2.07 0.08 57 1016.9
20260905131103 88 229 2.6 5.2 0.00 2.07 0.08 58 1016.7
20260905131003 87 232 2.6 5.2 0.00 2.07 0.08 59 1016.9
20260905130903 87 234 2.6 5.2 0.00 2.07 0.08 60 1016.8
20260905130803 87 237 2.6 5.2 0.00 2.07 0.08 62 1016.9
20260905130703 87 238 2.6 5.2 0.00 2.07 0.08 62 1016.9
20260905130603 88 235 1.7 3.5 0.00 2.07 0.08 62 1016.9
20260905130503 88 237 1.7 3.5 0.00 2.07 0.08 60 1016.8
20260905130403 88 236 2.6 3.5 0.00 2.07 0.08 60 1016.9
20260905130303 88 234 2.6 3.5 0.00 2.07 0.08 59 1017.1
20260905130203 87 234 2.6 3.5 0.00 2.07 0.08 58 1017.1
20260905130003 87 233 2.6 3.5 0.00 2.07 0.08 60 1017.0
20260905125903 87 231 2.6 3.5 0.00 2.07 0.08 60 1016.9
20260905125803 86 231 2.6 3.5 0.00 2.07 0.08 62 1016.8
20260905125703 87 229 2.6 3.5 0.00 2.07 0.08 61 1016.8
20260905125603 87 230 2.6 3.5 0.00 2.07 0.08 59 1017.1
20260905125503 86 228 2.6 3.5 0.00 2.07 0.08 61 1016.9
20260905125403 86 230 2.6 3.5 0.00 2.07 0.08 61 1016.9
20260905125306 87 228 2.6 3.5 0.00 2.07 0.08 61 1017.0
20260905125203 88 229 2.6 3.5 0.00 2.07 0.08 60 1016.9
20260905125103 88 232 2.6 3.5 0.00 2.07 0.08 59 1017.0
20260905125003 88 232 2.6 3.5 0.00 2.07 0.08 59 1017.0
20260905124903 87 230 2.6 3.5 0.00 2.07 0.08 60 1017.2
20260905124804 88 228 2.6 3.5 0.00 2.07 0.08 59 1017.1
20260905124703 88 230 2.6 3.5 0.00 2.07 0.08 59 1017.0
20260905124603 88 232 2.6 3.5 0.00 2.07 0.08 59 1017.2
20260905124503 88 232 2.6 5.2 0.00 2.07 0.08 58 1017.0
20260905124403 87 231 3.5 5.2 0.00 2.07 0.08 57 1016.9
20260905124303 88 229 3.5 5.2 0.00 2.07 0.08 58 1017.0
20260905124203 88 227 3.5 5.2 0.00 2.07 0.08 57 1017.1
20260905124103 89 226 3.5 5.2 0.00 2.07 0.08 59 1017.2
20260905124003 88 225 3.5 5.2 0.00 2.07 0.08 60 1017.2
20260905123903 88 226 3.5 5.2 0.00 2.07 0.08 58 1017.0
20260905123803 88 227 3.5 5.2 0.00 2.07 0.08 59 1017.1
20260905123703 89 220 3.5 5.2 0.00 2.07 0.08 59 1017.2
20260905123603 88 217 3.5 5.2 0.00 2.07 0.08 58 1017.3
20260905123503 88 212 3.5 5.2 0.00 2.07 0.08 58 1017.3
20260905123403 88 204 3.5 7.0 0.00 2.07 0.08 57 1017.0
20260905123303 88 203 3.5 7.0 0.00 2.07 0.08 58 1017.3
20260905123203 88 203 3.5 7.0 0.00 2.07 0.08 57 1017.2
20260905123103 88 201 3.5 7.0 0.00 2.07 0.08 58 1017.3
20260905123003 89 201 3.5 7.0 0.00 2.07 0.08 57 1017.2
20260905122903 89 201 3.5 7.0 0.00 2.07 0.08 57 1017.2
20260905122803 89 204 3.5 7.0 0.00 2.07 0.08 56 1017.3
20260905122703 88 211 3.5 7.0 0.00 2.07 0.08 57 1017.3
20260905122603 88 209 3.5 7.0 0.00 2.07 0.08 56 1017.3
20260905122503 88 212 3.5 7.0 0.00 2.07 0.08 56 1016.9
20260905122403 88 220 3.5 7.0 0.00 2.07 0.08 56 1017.1
20260905122306 88 225 2.6 5.2 0.00 2.07 0.08 56 1017.1
20260905122203 89 227 2.6 3.5 0.00 2.07 0.08 56 1017.1
20260905122103 88 234 2.6 3.5 0.00 2.07 0.08 56 1017.3
20260905122003 88 230 2.6 3.5 0.00 2.07 0.08 56 1017.0
20260905121903 89 227 3.5 6.1 0.00 2.07 0.08 55 1017.1
20260905121803 89 226 3.5 6.1 0.00 2.07 0.08 55 1017.1
20260905121703 89 223 3.5 6.1 0.00 2.07 0.08 55 1017.2
20260905121603 88 227 2.6 6.1 0.00 2.07 0.08 55 1017.2
20260905121503 89 236 3.5 6.1 0.00 2.07 0.08 56 1017.1
20260905121403 89 238 2.6 6.1 0.00 2.07 0.08 55 1017.3
20260905121303 88 237 3.5 6.1 0.00 2.07 0.08 55 1017.2
20260905121203 89 236 3.5 6.1 0.00 2.07 0.08 55 1017.2
20260905121103 89 233 2.6 6.1 0.00 2.07 0.08 55 1017.1
20260905121003 89 234 2.6 6.1 0.00 2.07 0.08 55 1017.3
20260905120903 89 236 2.6 6.1 0.00 2.07 0.08 54 1017.1
20260905120804 90 240 2.6 3.5 0.00 2.07 0.08 54 1017.2
20260905120703 90 242 2.6 3.5 0.00 2.07 0.08 54 1017.2
20260905120603 89 240 2.6 3.5 0.00 2.07 0.08 55 1017.2
20260905120503 89 233 2.6 3.5 0.00 2.07 0.08 55 1017.3
20260905120403 88 231 2.6 3.5 0.00 2.07 0.08 54 1017.2
20260905120303 89 230 2.6 3.5 0.00 2.07 0.08 55 1017.4
20260905120203 89 229 2.6 3.5 0.00 2.07 0.08 55 1017.2
20260905120103 88 227 2.6 3.5 0.00 2.07 0.08 55 1017.3
20260905120004 88 229 2.6 3.5 0.00 2.07 0.08 55 1017.3
20260905115903 88 230 2.6 3.5 0.00 2.07 0.08 55 1017.1
20260905115803 88 230 2.6 3.5 0.00 2.07 0.08 55 1017.3
20260905115703 89 227 2.6 3.5 0.00 2.07 0.08 54 1017.3
20260905115603 89 230 2.6 3.5 0.00 2.07 0.08 53 1017.2
20260905115503 90 227 2.6 3.5 0.00 2.07 0.08 54 1017.4
20260905115403 89 226 2.6 3.5 0.00 2.07 0.08 55 1017.2
20260905115306 88 231 2.6 3.5 0.00 2.07 0.08 54 1017.2
20260905115203 89 237 2.6 3.5 0.00 2.07 0.08 54 1017.2
20260905115103 88 239 3.5 3.5 0.00 2.07 0.08 55 1017.1
20260905115003 87 237 3.5 3.5 0.00 2.07 0.08 55 1017.1
20260905114903 88 234 3.5 3.5 0.00 2.07 0.08 55 1017.4
20260905114803 88 238 3.5 3.5 0.00 2.07 0.08 55 1017.3
20260905114703 88 240 3.5 3.5 0.00 2.07 0.08 54 1017.2
20260905114603 88 240 3.5 3.5 0.00 2.07 0.08 54 1017.1
20260905114503 89 244 3.5 3.5 0.00 2.07 0.08 54 1017.4
20260905114403 88 247 3.5 5.2 0.00 2.07 0.08 55 1017.4
20260905114303 88 242 3.5 5.2 0.00 2.07 0.08 54 1017.3
20260905114203 88 238 2.6 5.2 0.00 2.07 0.08 54 1017.2
20260905114103 89 235 2.6 5.2 0.00 2.07 0.08 53 1017.3
20260905114003 89 236 2.6 5.2 0.00 2.07 0.08 53 1017.3
20260905113903 89 237 2.6 5.2 0.00 2.07 0.08 54 1017.5
20260905113803 88 228 2.6 5.2 0.00 2.07 0.08 56 1017.2
20260905113703 89 230 2.6 5.2 0.00 2.07 0.08 54 1017.3
20260905113603 89 228 2.6 5.2 0.00 2.07 0.08 54 1017.2
20260905113503 88 224 2.6 5.2 0.00 2.07 0.08 55 1017.4
20260905113403 89 221 2.6 5.2 0.00 2.07 0.08 55 1017.3
20260905113303 89 221 2.6 5.2 0.00 2.07 0.08 54 1017.3
20260905113203 89 223 2.6 5.2 0.00 2.07 0.08 54 1017.1
20260905113103 89 223 3.5 5.2 0.00 2.07 0.08 53 1017.3
20260905112904 88 222 3.5 3.5 0.00 2.07 0.08 54 1017.3
20260905112803 89 229 3.5 3.5 0.00 2.07 0.08 54 1017.4
20260905112703 89 227 3.5 3.5 0.00 2.07 0.08 54 1017.2
20260905112603 89 225 3.5 3.5 0.00 2.07 0.08 55 1017.4
20260905112503 88 226 3.5 3.5 0.00 2.07 0.08 54 1017.3
20260905112403 88 229 3.5 3.5 0.00 2.07 0.08 54 1017.4
20260905112305 89 232 3.5 3.5 0.00 2.07 0.08 55 1017.3
20260905112203 88 234 3.5 3.5 0.00 2.07 0.08 55 1017.4
20260905112103 88 237 3.5 3.5 0.00 2.07 0.08 55 1017.4
20260905112003 88 238 3.5 6.1 0.00 2.07 0.08 54 1017.6
20260905111903 88 236 3.5 6.1 0.00 2.07 0.08 54 1017.4
20260905111803 88 235 3.5 6.1 0.00 2.07 0.08 53 1017.3
20260905111703 88 239 3.5 6.1 0.00 2.07 0.08 53 1017.1
20260905111603 89 239 2.6 6.1 0.00 2.07 0.08 53 1017.4
20260905111503 89 239 2.6 6.1 0.00 2.07 0.08 52 1017.3
20260905111403 89 240 2.6 6.1 0.00 2.07 0.08 52 1017.4
20260905111303 89 237 2.6 6.1 0.00 2.07 0.08 51 1017.4
20260905111203 89 237 2.6 6.1 0.00 2.07 0.08 52 1017.3
20260905111104 90 237 2.6 6.1 0.00 2.07 0.08 52 1017.3
20260905111003 89 240 2.6 3.5 0.00 2.07 0.08 53 1017.3
20260905110903 89 235 2.6 3.5 0.00 2.07 0.08 52 1017.4
20260905110703 90 230 2.6 3.5 0.00 2.07 0.08 52 1017.2
20260905110603 89 231 2.6 3.5 0.00 2.07 0.08 52 1017.3
20260905110503 89 232 2.6 3.5 0.00 2.07 0.08 52 1017.4
20260905110403 88 230 3.5 3.5 0.00 2.07 0.08 52 1017.2
20260905110303 89 226 2.6 3.5 0.00 2.07 0.08 52 1017.2
20260905110203 89 223 2.6 3.5 0.00 2.07 0.08 51 1017.3
20260905110004 90 214 2.6 3.5 0.00 2.07 0.08 50 1017.4
20260905105903 91 218 2.6 3.5 0.00 2.07 0.08 50 1017.4
20260905105803 90 216 2.6 3.5 0.00 2.07 0.08 51 1017.3